Wetterdaten: Freitag, 13.01.2023
Datum Zeit Temp. 2m Temp +5 cm Feuchte A. Luftdruck Regen Wind Richtung Richtung Sonnenschein UV Solar Taupunkt Windchill Windben
13.01.2023 00:00 7,6 C 6,7 C 92 % 1009,6 hPa 0,0 l/m 22,5 km/h (4 Bft) S 180 0 min 0,0 UV-I 0 W/m 6,4 C -0,7 C 33,8 km/h (5 Bft)
13.01.2023 00:01 7,6 C 6,7 C 92 % 1009,7 hPa 0,0 l/m 25,7 km/h (4 Bft) S 180 0 min 0,0 UV-I 0 W/m 6,4 C -1,6 C 37,0 km/h (5 Bft)
13.01.2023 00:02 7,6 C 6,7 C 92 % 1009,7 hPa 0,0 l/m 25,7 km/h (4 Bft) S-SW 202 0 min 0,0 UV-I 0 W/m 6,4 C -1,6 C 37,0 km/h (5 Bft)
13.01.2023 00:03 7,6 C 6,7 C 92 % 1009,8 hPa 0,0 l/m 22,5 km/h (4 Bft) S 180 0 min 0,0 UV-I 0 W/m 6,4 C -0,7 C 32,2 km/h (5 Bft)
13.01.2023 00:04 7,6 C 6,7 C 92 % 1009,7 hPa 0,0 l/m 24,1 km/h (4 Bft) S 180 0 min 0,0 UV-I 0 W/m 6,4 C -1,2 C 33,8 km/h (5 Bft)
13.01.2023 00:05 7,6 C 6,7 C 92 % 1009,5 hPa 0,0 l/m 27,4 km/h (4 Bft) S-SW 202 0 min 0,0 UV-I 0 W/m 6,4 C -2,1 C 37,0 km/h (5 Bft)
13.01.2023 00:06 7,6 C 6,7 C 92 % 1009,8 hPa 0,0 l/m 19,3 km/h (3 Bft) S 180 0 min 0,0 UV-I 0 W/m 6,4 C 0,4 C 29,0 km/h (5 Bft)
13.01.2023 00:07 7,6 C 6,7 C 92 % 1009,8 hPa 0,0 l/m 20,9 km/h (4 Bft) S 180 0 min 0,0 UV-I 0 W/m 6,4 C -0,1 C 33,8 km/h (5 Bft)
13.01.2023 00:08 7,6 C 6,7 C 92 % 1009,8 hPa 0,0 l/m 25,7 km/h (4 Bft) S-SW 202 0 min 0,0 UV-I 0 W/m 6,4 C -1,6 C 33,8 km/h (5 Bft)
13.01.2023 00:09 7,6 C 6,7 C 92 % 1009,9 hPa 0,0 l/m 20,9 km/h (4 Bft) S 180 0 min 0,0 UV-I 0 W/m 6,4 C -0,1 C 29,0 km/h (5 Bft)
13.01.2023 00:10 7,6 C 6,7 C 92 % 1009,8 hPa 0,0 l/m 19,3 km/h (3 Bft) S-SW 202 0 min 0,0 UV-I 0 W/m 6,4 C 0,4 C 27,4 km/h (4 Bft)
13.01.2023 00:11 7,6 C 6,7 C 92 % 1009,8 hPa 0,0 l/m 25,7 km/h (4 Bft) S-SW 202 0 min 0,0 UV-I 0 W/m 6,4 C -1,6 C 35,4 km/h (5 Bft)
13.01.2023 00:12 7,6 C 6,7 C 92 % 1009,8 hPa 0,0 l/m 22,5 km/h (4 Bft) S-SW 202 0 min 0,0 UV-I 0 W/m 6,4 C -0,7 C 30,6 km/h (5 Bft)
13.01.2023 00:13 7,6 C 6,7 C 92 % 1009,8 hPa 0,0 l/m 20,9 km/h (4 Bft) S 180 0 min 0,0 UV-I 0 W/m 6,4 C -0,1 C 30,6 km/h (5 Bft)
13.01.2023 00:14 7,6 C 6,7 C 92 % 1009,8 hPa 0,2 l/m 20,9 km/h (4 Bft) S-SW 202 0 min 0,0 UV-I 0 W/m 6,4 C -0,1 C 27,4 km/h (4 Bft)
13.01.2023 00:15 7,6 C 6,7 C 92 % 1009,8 hPa 0,0 l/m 22,5 km/h (4 Bft) S-SW 202 0 min 0,0 UV-I 0 W/m 6,4 C -0,7 C 30,6 km/h (5 Bft)
13.01.2023 00:16 7,6 C 6,7 C 92 % 1009,8 hPa 0,0 l/m 29,0 km/h (5 Bft) S-SW 202 0 min 0,0 UV-I 0 W/m 6,4 C -2,5 C 40,2 km/h (6 Bft)
13.01.2023 00:17 7,6 C 6,7 C 92 % 1009,8 hPa 0,0 l/m 22,5 km/h (4 Bft) S-SW 202 0 min 0,0 UV-I 0 W/m 6,4 C -0,7 C 33,8 km/h (5 Bft)
13.01.2023 00:18 7,6 C 6,7 C 92 % 1009,8 hPa 0,0 l/m 22,5 km/h (4 Bft) S-SW 202 0 min 0,0 UV-I 0 W/m 6,4 C -0,7 C 33,8 km/h (5 Bft)
13.01.2023 00:19 7,6 C 6,7 C 92 % 1009,8 hPa 0,0 l/m 20,9 km/h (4 Bft) S 180 0 min 0,0 UV-I 0 W/m 6,4 C -0,1 C 30,6 km/h (5 Bft)
13.01.2023 00:20 7,6 C 6,7 C 92 % 1009,8 hPa 0,0 l/m 25,7 km/h (4 Bft) S-SW 202 0 min 0,0 UV-I 0 W/m 6,4 C -1,6 C 37,0 km/h (5 Bft)
13.01.2023 00:21 7,6 C 6,7 C 92 % 1009,8 hPa 0,0 l/m 27,4 km/h (4 Bft) S 180 0 min 0,0 UV-I 0 W/m 6,4 C -2,1 C 40,2 km/h (6 Bft)
13.01.2023 00:22 7,6 C 6,7 C 92 % 1009,8 hPa 0,0 l/m 25,7 km/h (4 Bft) S-SW 202 0 min 0,0 UV-I 0 W/m 6,4 C -1,6 C 33,8 km/h (5 Bft)
13.01.2023 00:23 7,6 C 6,7 C 92 % 1009,8 hPa 0,0 l/m 25,7 km/h (4 Bft) S-SW 202 0 min 0,0 UV-I 0 W/m 6,4 C -1,6 C 40,2 km/h (6 Bft)
13.01.2023 00:24 7,6 C 6,7 C 92 % 1009,8 hPa 0,0 l/m 19,3 km/h (3 Bft) S-SW 202 0 min 0,0 UV-I 0 W/m 6,4 C 0,4 C 27,4 km/h (4 Bft)
13.01.2023 00:25 7,6 C 6,7 C 92 % 1009,8 hPa 0,0 l/m 22,5 km/h (4 Bft) S 180 0 min 0,0 UV-I 0 W/m 6,4 C -0,7 C 29,0 km/h (5 Bft)
13.01.2023 00:26 7,6 C 6,7 C 92 % 1009,8 hPa 0,2 l/m 27,4 km/h (4 Bft) S 180 0 min 0,0 UV-I 0 W/m 6,4 C -2,1 C 35,4 km/h (5 Bft)
13.01.2023 00:27 7,6 C 6,7 C 92 % 1009,8 hPa 0,0 l/m 24,1 km/h (4 Bft) S 180 0 min 0,0 UV-I 0 W/m 6,4 C -1,2 C 33,8 km/h (5 Bft)
13.01.2023 00:28 7,6 C 6,7 C 92 % 1009,6 hPa 0,0 l/m 17,7 km/h (3 Bft) S 180 0 min 0,0 UV-I 0 W/m 6,4 C 1,1 C 24,1 km/h (4 Bft)
13.01.2023 00:29 7,6 C 6,7 C 92 % 1009,6 hPa 0,0 l/m 25,7 km/h (4 Bft) S 180 0 min 0,0 UV-I 0 W/m 6,4 C -1,6 C 38,6 km/h (5 Bft)
13.01.2023 00:30 7,6 C 6,7 C 92 % 1009,8 hPa 0,0 l/m 19,3 km/h (3 Bft) S 180 0 min 0,0 UV-I 0 W/m 6,4 C 0,4 C 32,2 km/h (5 Bft)
13.01.2023 00:31 7,6 C 6,7 C 92 % 1009,7 hPa 0,0 l/m 25,7 km/h (4 Bft) S 180 0 min 0,0 UV-I 0 W/m 6,4 C -1,6 C 38,6 km/h (5 Bft)
13.01.2023 00:32 7,6 C 6,7 C 92 % 1009,7 hPa 0,0 l/m 24,1 km/h (4 Bft) S-SW 202 0 min 0,0 UV-I 0 W/m 6,4 C -1,2 C 30,6 km/h (5 Bft)
13.01.2023 00:33 7,6 C 6,7 C 92 % 1009,7 hPa 0,0 l/m 27,4 km/h (4 Bft) S 180 0 min 0,0 UV-I 0 W/m 6,4 C -2,1 C 35,4 km/h (5 Bft)
13.01.2023 00:34 7,6 C 6,7 C 92 % 1009,7 hPa 0,0 l/m 24,1 km/h (4 Bft) S-SW 202 0 min 0,0 UV-I 0 W/m 6,4 C -1,2 C 32,2 km/h (5 Bft)
13.01.2023 00:35 7,6 C 6,7 C 92 % 1009,6 hPa 0,0 l/m 20,9 km/h (4 Bft) S-SW 202 0 min 0,0 UV-I 0 W/m 6,4 C -0,1 C 29,0 km/h (5 Bft)
13.01.2023 00:36 7,6 C 6,7 C 92 % 1009,5 hPa 0,0 l/m 20,9 km/h (4 Bft) S-SW 202 0 min 0,0 UV-I 0 W/m 6,4 C -0,1 C 29,0 km/h (5 Bft)
13.01.2023 00:37 7,6 C 6,7 C 92 % 1009,6 hPa 0,0 l/m 24,1 km/h (4 Bft) S-SW 202 0 min 0,0 UV-I 0 W/m 6,4 C -1,2 C 32,2 km/h (5 Bft)
13.01.2023 00:38 7,6 C 6,7 C 92 % 1009,6 hPa 0,2 l/m 25,7 km/h (4 Bft) S-SW 202 0 min 0,0 UV-I 0 W/m 6,4 C -1,6 C 37,0 km/h (5 Bft)
13.01.2023 00:39 7,6 C 6,7 C 92 % 1009,5 hPa 0,0 l/m 24,1 km/h (4 Bft) S 180 0 min 0,0 UV-I 0 W/m 6,4 C -1,2 C 35,4 km/h (5 Bft)
13.01.2023 00:40 7,6 C 6,7 C 92 % 1009,6 hPa 0,0 l/m 24,1 km/h (4 Bft) S 180 0 min 0,0 UV-I 0 W/m 6,4 C -1,2 C 32,2 km/h (5 Bft)
13.01.2023 00:41 7,6 C 6,7 C 92 % 1009,6 hPa 0,0 l/m 25,7 km/h (4 Bft) S-SW 202 0 min 0,0 UV-I 0 W/m 6,4 C -1,6 C 35,4 km/h (5 Bft)
13.01.2023 00:42 7,6 C 6,7 C 92 % 1009,5 hPa 0,0 l/m 22,5 km/h (4 Bft) S-SW 202 0 min 0,0 UV-I 0 W/m 6,4 C -0,7 C 32,2 km/h (5 Bft)
13.01.2023 00:43 7,6 C 6,7 C 92 % 1009,5 hPa 0,0 l/m 25,7 km/h (4 Bft) S 180 0 min 0,0 UV-I 0 W/m 6,4 C -1,6 C 40,2 km/h (6 Bft)
13.01.2023 00:44 7,6 C 6,7 C 92 % 1009,4 hPa 0,2 l/m 29,0 km/h (5 Bft) SW 225 0 min 0,0 UV-I 0 W/m 6,4 C -2,5 C 38,6 km/h (5 Bft)
13.01.2023 00:45 7,6 C 6,7 C 92 % 1009,4 hPa 0,0 l/m 29,0 km/h (5 Bft) S-SW 202 0 min 0,0 UV-I 0 W/m 6,4 C -2,5 C 37,0 km/h (5 Bft)
13.01.2023 00:46 7,6 C 6,7 C 92 % 1009,5 hPa 0,0 l/m 20,9 km/h (4 Bft) S-SW 202 0 min 0,0 UV-I 0 W/m 6,4 C -0,1 C 30,6 km/h (5 Bft)
13.01.2023 00:47 7,6 C 6,7 C 92 % 1009,5 hPa 0,0 l/m 22,5 km/h (4 Bft) S-SW 202 0 min 0,0 UV-I 0 W/m 6,4 C -0,7 C 30,6 km/h (5 Bft)
13.01.2023 00:48 7,6 C 6,7 C 92 % 1009,5 hPa 0,0 l/m 24,1 km/h (4 Bft) S 180 0 min 0,0 UV-I 0 W/m 6,4 C -1,2 C 37,0 km/h (5 Bft)
13.01.2023 00:49 7,6 C 6,7 C 92 % 1009,5 hPa 0,0 l/m 37,0 km/h (5 Bft) S-SW 202 0 min 0,0 UV-I 0 W/m 6,4 C -4,2 C 48,3 km/h (6 Bft)
13.01.2023 00:50 7,6 C 6,7 C 92 % 1009,5 hPa 0,2 l/m 25,7 km/h (4 Bft) S 180 0 min 0,0 UV-I 0 W/m 6,4 C -1,6 C 48,3 km/h (6 Bft)
13.01.2023 00:51 7,6 C 6,7 C 92 % 1009,4 hPa 0,0 l/m 29,0 km/h (5 Bft) S-SW 202 0 min 0,0 UV-I 0 W/m 6,4 C -2,5 C 37,0 km/h (5 Bft)
13.01.2023 00:52 7,6 C 6,7 C 92 % 1009,4 hPa 0,0 l/m 22,5 km/h (4 Bft) S-SW 202 0 min 0,0 UV-I 0 W/m 6,4 C -0,7 C 33,8 km/h (5 Bft)
13.01.2023 00:53 7,6 C 6,7 C 92 % 1009,5 hPa 0,0 l/m 20,9 km/h (4 Bft) S-SW 202 0 min 0,0 UV-I 0 W/m 6,4 C -0,1 C 25,7 km/h (4 Bft)
13.01.2023 00:54 7,6 C 6,7 C 92 % 1009,4 hPa 0,0 l/m 27,4 km/h (4 Bft) S-SW 202 0 min 0,0 UV-I 0 W/m 6,4 C -2,1 C 38,6 km/h (5 Bft)
13.01.2023 00:55 7,6 C 6,7 C 92 % 1009,3 hPa 0,0 l/m 25,7 km/h (4 Bft) S-SW 202 0 min 0,0 UV-I 0 W/m 6,4 C -1,6 C 37,0 km/h (5 Bft)
13.01.2023 00:56 7,6 C 6,7 C 92 % 1009,4 hPa 0,0 l/m 20,9 km/h (4 Bft) S 180 0 min 0,0 UV-I 0 W/m 6,4 C -0,1 C 29,0 km/h (5 Bft)
13.01.2023 00:57 7,6 C 6,7 C 92 % 1009,3 hPa 0,0 l/m 19,3 km/h (3 Bft) S-SW 202 0 min 0,0 UV-I 0 W/m 6,4 C 0,4 C 29,0 km/h (5 Bft)
13.01.2023 00:58 7,6 C 6,7 C 92 % 1009,5 hPa 0,0 l/m 25,7 km/h (4 Bft) S-SW 202 0 min 0,0 UV-I 0 W/m 6,4 C -1,6 C 37,0 km/h (5 Bft)
13.01.2023 00:59 7,6 C 6,7 C 92 % 1009,4 hPa 0,0 l/m 24,1 km/h (4 Bft) S-SW 202 0 min 0,0 UV-I 0 W/m 6,4 C -1,2 C 29,0 km/h (5 Bft)
13.01.2023 01:00 7,7 C 6,7 C 92 % 1009,3 hPa 0,2 l/m 22,5 km/h (4 Bft) S-SW 202 0 min 0,0 UV-I 0 W/m 6,5 C -0,5 C 30,6 km/h (5 Bft)
13.01.2023 01:01 7,6 C 6,7 C 92 % 1009,3 hPa 0,0 l/m 22,5 km/h (4 Bft) S-SW 202 0 min 0,0 UV-I 0 W/m 6,4 C -0,7 C 30,6 km/h (5 Bft)
13.01.2023 01:02 7,6 C 6,7 C 92 % 1009,3 hPa 0,0 l/m 24,1 km/h (4 Bft) S-SW 202 0 min 0,0 UV-I 0 W/m 6,4 C -1,2 C 35,4 km/h (5 Bft)
13.01.2023 01:03 7,7 C 6,7 C 92 % 1009,2 hPa 0,0 l/m 25,7 km/h (4 Bft) S 180 0 min 0,0 UV-I 0 W/m 6,5 C -1,5 C 35,4 km/h (5 Bft)
13.01.2023 01:04 7,6 C 6,7 C 92 % 1009,2 hPa 0,0 l/m 22,5 km/h (4 Bft) S-SW 202 0 min 0,0 UV-I 0 W/m 6,4 C -0,7 C 27,4 km/h (4 Bft)
13.01.2023 01:05 7,6 C 6,7 C 92 % 1009,3 hPa 0,0 l/m 29,0 km/h (5 Bft) S-SW 202 0 min 0,0 UV-I 0 W/m 6,4 C -2,5 C 46,7 km/h (6 Bft)
13.01.2023 01:06 7,7 C 6,7 C 92 % 1009,2 hPa 0,0 l/m 29,0 km/h (5 Bft) S 180 0 min 0,0 UV-I 0 W/m 6,5 C -2,3 C 43,5 km/h (6 Bft)
13.01.2023 01:07 7,7 C 6,7 C 92 % 1009,3 hPa 0,0 l/m 22,5 km/h (4 Bft) S-SW 202 0 min 0,0 UV-I 0 W/m 6,5 C -0,5 C 33,8 km/h (5 Bft)
13.01.2023 01:08 7,6 C 6,7 C 92 % 1009,2 hPa 0,0 l/m 20,9 km/h (4 Bft) S-SW 202 0 min 0,0 UV-I 0 W/m 6,4 C -0,1 C 27,4 km/h (4 Bft)
13.01.2023 01:09 7,6 C 6,7 C 92 % 1009,2 hPa 0,0 l/m 24,1 km/h (4 Bft) S-SW 202 0 min 0,0 UV-I 0 W/m 6,4 C -1,2 C 32,2 km/h (5 Bft)
13.01.2023 01:10 7,6 C 6,7 C 92 % 1009,2 hPa 0,0 l/m 19,3 km/h (3 Bft) S-SW 202 0 min 0,0 UV-I 0 W/m 6,4 C 0,4 C 29,0 km/h (5 Bft)
13.01.2023 01:11 7,7 C 6,7 C 92 % 1009,2 hPa 0,0 l/m 22,5 km/h (4 Bft) S-SW 202 0 min 0,0 UV-I 0 W/m 6,5 C -0,5 C 33,8 km/h (5 Bft)
13.01.2023 01:12 7,6 C 6,7 C 92 % 1009,2 hPa 0,0 l/m 29,0 km/h (5 Bft) S-SW 202 0 min 0,0 UV-I 0 W/m 6,4 C -2,5 C 38,6 km/h (5 Bft)
13.01.2023 01:13 7,7 C 6,7 C 92 % 1009,0 hPa 0,0 l/m 25,7 km/h (4 Bft) S-SW 202 0 min 0,0 UV-I 0 W/m 6,5 C -1,5 C 33,8 km/h (5 Bft)
13.01.2023 01:14 7,6 C 6,7 C 92 % 1009,1 hPa 0,0 l/m 22,5 km/h (4 Bft) S 180 0 min 0,0 UV-I 0 W/m 6,4 C -0,7 C 32,2 km/h (5 Bft)
13.01.2023 01:15 7,7 C 6,7 C 92 % 1009,1 hPa 0,0 l/m 27,4 km/h (4 Bft) S 180 0 min 0,0 UV-I 0 W/m 6,5 C -1,9 C 35,4 km/h (5 Bft)
13.01.2023 01:16 7,7 C 6,7 C 92 % 1009,0 hPa 0,2 l/m 27,4 km/h (4 Bft) S-SW 202 0 min 0,0 UV-I 0 W/m 6,5 C -1,9 C 43,5 km/h (6 Bft)
13.01.2023 01:17 7,6 C 6,7 C 92 % 1009,1 hPa 0,0 l/m 22,5 km/h (4 Bft) S-SW 202 0 min 0,0 UV-I 0 W/m 6,4 C -0,7 C 30,6 km/h (5 Bft)
13.01.2023 01:18 7,7 C 6,7 C 92 % 1009,1 hPa 0,0 l/m 24,1 km/h (4 Bft) S-SW 202 0 min 0,0 UV-I 0 W/m 6,5 C -1,0 C 30,6 km/h (5 Bft)
13.01.2023 01:19 7,7 C 6,7 C 92 % 1009,0 hPa 0,0 l/m 25,7 km/h (4 Bft) S-SW 202 0 min 0,0 UV-I 0 W/m 6,5 C -1,5 C 35,4 km/h (5 Bft)
13.01.2023 01:20 7,7 C 6,7 C 92 % 1009,0 hPa 0,0 l/m 24,1 km/h (4 Bft) S 180 0 min 0,0 UV-I 0 W/m 6,5 C -1,0 C 37,0 km/h (5 Bft)
13.01.2023 01:21 7,7 C 6,7 C 92 % 1008,9 hPa 0,0 l/m 29,0 km/h (5 Bft) S-SW 202 0 min 0,0 UV-I 0 W/m 6,5 C -2,3 C 41,8 km/h (6 Bft)
13.01.2023 01:22 7,7 C 6,7 C 92 % 1009,0 hPa 0,0 l/m 27,4 km/h (4 Bft) S-SW 202 0 min 0,0 UV-I 0 W/m 6,5 C -1,9 C 37,0 km/h (5 Bft)
13.01.2023 01:23 7,7 C 6,7 C 92 % 1009,0 hPa 0,0 l/m 32,2 km/h (5 Bft) S-SW 202 0 min 0,0 UV-I 0 W/m 6,5 C -3,1 C 43,5 km/h (6 Bft)
13.01.2023 01:24 7,7 C 6,7 C 92 % 1008,9 hPa 0,0 l/m 25,7 km/h (4 Bft) S 180 0 min 0,0 UV-I 0 W/m 6,5 C -1,5 C 37,0 km/h (5 Bft)
13.01.2023 01:25 7,7 C 6,7 C 92 % 1009,0 hPa 0,0 l/m 22,5 km/h (4 Bft) S-SW 202 0 min 0,0 UV-I 0 W/m 6,5 C -0,5 C 30,6 km/h (5 Bft)
13.01.2023 01:26 7,7 C 6,7 C 92 % 1009,0 hPa 0,2 l/m 32,2 km/h (5 Bft) S-SW 202 0 min 0,0 UV-I 0 W/m 6,5 C -3,1 C 37,0 km/h (5 Bft)
13.01.2023 01:27 7,7 C 6,7 C 92 % 1009,1 hPa 0,0 l/m 29,0 km/h (5 Bft) S-SW 202 0 min 0,0 UV-I 0 W/m 6,5 C -2,3 C 35,4 km/h (5 Bft)
13.01.2023 01:28 7,7 C 6,7 C 92 % 1009,0 hPa 0,2 l/m 25,7 km/h (4 Bft) S-SW 202 0 min 0,0 UV-I 0 W/m 6,5 C -1,5 C 38,6 km/h (5 Bft)
13.01.2023 01:29 7,7 C 6,7 C 92 % 1009,0 hPa 0,0 l/m 22,5 km/h (4 Bft) S-SW 202 0 min 0,0 UV-I 0 W/m 6,5 C -0,5 C 29,0 km/h (5 Bft)
13.01.2023 01:30 7,7 C 6,7 C 92 % 1009,0 hPa 0,2 l/m 24,1 km/h (4 Bft) S-SW 202 0 min 0,0 UV-I 0 W/m 6,5 C -1,0 C 32,2 km/h (5 Bft)
13.01.2023 01:31 7,7 C 6,7 C 92 % 1008,8 hPa 0,0 l/m 24,1 km/h (4 Bft) S-SW 202 0 min 0,0 UV-I 0 W/m 6,5 C -1,0 C 32,2 km/h (5 Bft)
13.01.2023 01:32 7,7 C 6,7 C 92 % 1008,8 hPa 0,0 l/m 25,7 km/h (4 Bft) S-SW 202 0 min 0,0 UV-I 0 W/m 6,5 C -1,5 C 30,6 km/h (5 Bft)
13.01.2023 01:33 7,7 C 6,7 C 92 % 1008,8 hPa 0,0 l/m 22,5 km/h (4 Bft) S 180 0 min 0,0 UV-I 0 W/m 6,5 C -0,5 C 37,0 km/h (5 Bft)
13.01.2023 01:34 7,7 C 6,7 C 92 % 1008,8 hPa 0,2 l/m 25,7 km/h (4 Bft) S-SW 202 0 min 0,0 UV-I 0 W/m 6,5 C -1,5 C 37,0 km/h (5 Bft)
13.01.2023 01:35 7,7 C 6,7 C 92 % 1008,8 hPa 0,0 l/m 22,5 km/h (4 Bft) S 180 0 min 0,0 UV-I 0 W/m 6,5 C -0,5 C 35,4 km/h (5 Bft)
13.01.2023 01:36 7,7 C 6,7 C 92 % 1008,9 hPa 0,0 l/m 20,9 km/h (4 Bft) S-SW 202 0 min 0,0 UV-I 0 W/m 6,5 C 0,0 C 29,0 km/h (5 Bft)
13.01.2023 01:37 7,7 C 6,7 C 92 % 1008,8 hPa 0,0 l/m 19,3 km/h (3 Bft) S-SW 202 0 min 0,0 UV-I 0 W/m 6,5 C 0,6 C 32,2 km/h (5 Bft)
13.01.2023 01:38 7,7 C 6,7 C 92 % 1008,8 hPa 0,2 l/m 25,7 km/h (4 Bft) S-SW 202 0 min 0,0 UV-I 0 W/m 6,5 C -1,5 C 35,4 km/h (5 Bft)
13.01.2023 01:39 7,6 C 6,7 C 92 % 1008,9 hPa 0,0 l/m 24,1 km/h (4 Bft) S-SW 202 0 min 0,0 UV-I 0 W/m 6,4 C -1,2 C 33,8 km/h (5 Bft)
13.01.2023 01:40 7,6 C 6,7 C 92 % 1008,8 hPa 0,0 l/m 19,3 km/h (3 Bft) S 180 0 min 0,0 UV-I 0 W/m 6,4 C 0,4 C 25,7 km/h (4 Bft)
13.01.2023 01:41 7,6 C 6,7 C 92 % 1008,7 hPa 0,0 l/m 20,9 km/h (4 Bft) S-SW 202 0 min 0,0 UV-I 0 W/m 6,4 C -0,1 C 30,6 km/h (5 Bft)
13.01.2023 01:42 7,6 C 6,7 C 92 % 1008,8 hPa 0,2 l/m 19,3 km/h (3 Bft) S-SW 202 0 min 0,0 UV-I 0 W/m 6,4 C 0,4 C 27,4 km/h (4 Bft)
13.01.2023 01:43 7,6 C 6,7 C 92 % 1008,7 hPa 0,0 l/m 19,3 km/h (3 Bft) S-SW 202 0 min 0,0 UV-I 0 W/m 6,4 C 0,4 C 29,0 km/h (5 Bft)
13.01.2023 01:44 7,6 C 6,7 C 92 % 1008,8 hPa 0,0 l/m 24,1 km/h (4 Bft) S-SW 202 0 min 0,0 UV-I 0 W/m 6,4 C -1,2 C 38,6 km/h (5 Bft)
13.01.2023 01:45 7,6 C 6,7 C 92 % 1008,8 hPa 0,0 l/m 30,6 km/h (5 Bft) S 180 0 min 0,0 UV-I 0 W/m 6,4 C -2,9 C 38,6 km/h (5 Bft)
13.01.2023 01:46 7,6 C 6,7 C 92 % 1008,7 hPa 0,0 l/m 30,6 km/h (5 Bft) S-SW 202 0 min 0,0 UV-I 0 W/m 6,4 C -2,9 C 41,8 km/h (6 Bft)
13.01.2023 01:47 7,6 C 6,7 C 92 % 1008,8 hPa 0,0 l/m 24,1 km/h (4 Bft) S 180 0 min 0,0 UV-I 0 W/m 6,4 C -1,2 C 35,4 km/h (5 Bft)
13.01.2023 01:48 7,6 C 6,7 C 92 % 1008,8 hPa 0,0 l/m 20,9 km/h (4 Bft) S-SW 202 0 min 0,0 UV-I 0 W/m 6,4 C -0,1 C 33,8 km/h (5 Bft)
13.01.2023 01:49 7,6 C 6,7 C 92 % 1008,6 hPa 0,0 l/m 27,4 km/h (4 Bft) S 180 0 min 0,0 UV-I 0 W/m 6,4 C -2,1 C 46,7 km/h (6 Bft)
13.01.2023 01:50 7,6 C 6,7 C 92 % 1008,6 hPa 0,0 l/m 30,6 km/h (5 Bft) S 180 0 min 0,0 UV-I 0 W/m 6,4 C -2,9 C 41,8 km/h (6 Bft)
13.01.2023 01:51 7,6 C 6,7 C 92 % 1008,7 hPa 0,0 l/m 27,4 km/h (4 Bft) S 180 0 min 0,0 UV-I 0 W/m 6,4 C -2,1 C 40,2 km/h (6 Bft)
13.01.2023 01:52 7,6 C 6,7 C 92 % 1008,6 hPa 0,0 l/m 30,6 km/h (5 Bft) S-SW 202 0 min 0,0 UV-I 0 W/m 6,4 C -2,9 C 41,8 km/h (6 Bft)
13.01.2023 01:53 7,6 C 6,7 C 92 % 1008,7 hPa 0,0 l/m 27,4 km/h (4 Bft) S 180 0 min 0,0 UV-I 0 W/m 6,4 C -2,1 C 40,2 km/h (6 Bft)
13.01.2023 01:54 7,6 C 6,7 C 92 % 1008,6 hPa 0,0 l/m 20,9 km/h (4 Bft) S-SW 202 0 min 0,0 UV-I 0 W/m 6,4 C -0,1 C 38,6 km/h (5 Bft)
13.01.2023 01:55 7,6 C 6,7 C 92 % 1008,6 hPa 0,0 l/m 27,4 km/h (4 Bft) S-SW 202 0 min 0,0 UV-I 0 W/m 6,4 C -2,1 C 40,2 km/h (6 Bft)
13.01.2023 01:56 7,6 C 6,7 C 92 % 1008,7 hPa 0,0 l/m 24,1 km/h (4 Bft) S-SW 202 0 min 0,0 UV-I 0 W/m 6,4 C -1,2 C 33,8 km/h (5 Bft)
13.01.2023 01:57 7,7 C 6,7 C 92 % 1008,6 hPa 0,0 l/m 25,7 km/h (4 Bft) S 180 0 min 0,0 UV-I 0 W/m 6,5 C -1,5 C 33,8 km/h (5 Bft)
13.01.2023 01:58 7,6 C 6,7 C 92 % 1008,6 hPa 0,0 l/m 25,7 km/h (4 Bft) S-SW 202 0 min 0,0 UV-I 0 W/m 6,4 C -1,6 C 33,8 km/h (5 Bft)
13.01.2023 01:59 7,6 C 6,7 C 92 % 1008,6 hPa 0,2 l/m 29,0 km/h (5 Bft) S 180 0 min 0,0 UV-I 0 W/m 6,4 C -2,5 C 49,9 km/h (6 Bft)
13.01.2023 02:00 7,6 C 6,7 C 92 % 1008,5 hPa 0,0 l/m 25,7 km/h (4 Bft) S-SW 202 0 min 0,0 UV-I 0 W/m 6,4 C -1,6 C 32,2 km/h (5 Bft)
13.01.2023 02:01 7,6 C 6,7 C 92 % 1008,5 hPa 0,0 l/m 22,5 km/h (4 Bft) S 180 0 min 0,0 UV-I 0 W/m 6,4 C -0,7 C 29,0 km/h (5 Bft)
13.01.2023 02:02 7,6 C 6,7 C 92 % 1008,5 hPa 0,0 l/m 29,0 km/h (5 Bft) S 180 0 min 0,0 UV-I 0 W/m 6,4 C -2,5 C 43,5 km/h (6 Bft)
13.01.2023 02:03 7,6 C 6,7 C 92 % 1008,4 hPa 0,0 l/m 29,0 km/h (5 Bft) S 180 0 min 0,0 UV-I 0 W/m 6,4 C -2,5 C 45,1 km/h (6 Bft)
13.01.2023 02:04 7,6 C 6,7 C 92 % 1008,4 hPa 0,0 l/m 30,6 km/h (5 Bft) S 180 0 min 0,0 UV-I 0 W/m 6,4 C -2,9 C 43,5 km/h (6 Bft)
13.01.2023 02:05 7,7 C 6,7 C 92 % 1008,5 hPa 0,0 l/m 29,0 km/h (5 Bft) S-SW 202 0 min 0,0 UV-I 0 W/m 6,5 C -2,3 C 37,0 km/h (5 Bft)
13.01.2023 02:06 7,6 C 6,7 C 92 % 1008,5 hPa 0,0 l/m 30,6 km/h (5 Bft) S 180 0 min 0,0 UV-I 0 W/m 6,4 C -2,9 C 41,8 km/h (6 Bft)
13.01.2023 02:07 7,7 C 6,7 C 92 % 1008,4 hPa 0,0 l/m 29,0 km/h (5 Bft) S-SW 202 0 min 0,0 UV-I 0 W/m 6,5 C -2,3 C 37,0 km/h (5 Bft)
13.01.2023 02:08 7,6 C 6,7 C 92 % 1008,5 hPa 0,0 l/m 29,0 km/h (5 Bft) S-SW 202 0 min 0,0 UV-I 0 W/m 6,4 C -2,5 C 40,2 km/h (6 Bft)
13.01.2023 02:09 7,7 C 6,7 C 92 % 1008,5 hPa 0,0 l/m 25,7 km/h (4 Bft) S-SW 202 0 min 0,0 UV-I 0 W/m 6,5 C -1,5 C 40,2 km/h (6 Bft)
13.01.2023 02:10 7,7 C 6,7 C 92 % 1008,5 hPa 0,0 l/m 24,1 km/h (4 Bft) S 180 0 min 0,0 UV-I 0 W/m 6,5 C -1,0 C 37,0 km/h (5 Bft)
13.01.2023 02:11 7,7 C 6,7 C 92 % 1008,5 hPa 0,0 l/m 24,1 km/h (4 Bft) S 180 0 min 0,0 UV-I 0 W/m 6,5 C -1,0 C 45,1 km/h (6 Bft)
13.01.2023 02:12 7,7 C 6,7 C 92 % 1008,6 hPa 0,0 l/m 29,0 km/h (5 Bft) S 180 0 min 0,0 UV-I 0 W/m 6,5 C -2,3 C 41,8 km/h (6 Bft)
13.01.2023 02:13 7,7 C 6,7 C 92 % 1008,4 hPa 0,0 l/m 24,1 km/h (4 Bft) S 180 0 min 0,0 UV-I 0 W/m 6,5 C -1,0 C 35,4 km/h (5 Bft)
13.01.2023 02:14 7,7 C 6,7 C 92 % 1008,4 hPa 0,0 l/m 27,4 km/h (4 Bft) S 180 0 min 0,0 UV-I 0 W/m 6,5 C -1,9 C 45,1 km/h (6 Bft)
13.01.2023 02:15 7,7 C 6,7 C 92 % 1008,4 hPa 0,0 l/m 27,4 km/h (4 Bft) S-SW 202 0 min 0,0 UV-I 0 W/m 6,5 C -1,9 C 40,2 km/h (6 Bft)
13.01.2023 02:16 7,7 C 6,7 C 92 % 1008,3 hPa 0,0 l/m 25,7 km/h (4 Bft) S 180 0 min 0,0 UV-I 0 W/m 6,5 C -1,5 C 37,0 km/h (5 Bft)
13.01.2023 02:17 7,7 C 6,7 C 92 % 1008,3 hPa 0,0 l/m 25,7 km/h (4 Bft) S 180 0 min 0,0 UV-I 0 W/m 6,5 C -1,5 C 38,6 km/h (5 Bft)
13.01.2023 02:18 7,7 C 6,7 C 92 % 1008,2 hPa 0,0 l/m 24,1 km/h (4 Bft) S-SW 202 0 min 0,0 UV-I 0 W/m 6,5 C -1,0 C 35,4 km/h (5 Bft)
13.01.2023 02:19 7,7 C 6,7 C 92 % 1008,3 hPa 0,0 l/m 24,1 km/h (4 Bft) S-SW 202 0 min 0,0 UV-I 0 W/m 6,5 C -1,0 C 37,0 km/h (5 Bft)
13.01.2023 02:20 7,7 C 6,7 C 92 % 1008,3 hPa 0,0 l/m 29,0 km/h (5 Bft) S 180 0 min 0,0 UV-I 0 W/m 6,5 C -2,3 C 41,8 km/h (6 Bft)
13.01.2023 02:21 7,7 C 6,7 C 92 % 1008,2 hPa 0,2 l/m 33,8 km/h (5 Bft) S-SW 202 0 min 0,0 UV-I 0 W/m 6,5 C -3,4 C 49,9 km/h (6 Bft)
13.01.2023 02:22 7,7 C 6,7 C 92 % 1008,3 hPa 0,0 l/m 27,4 km/h (4 Bft) S 180 0 min 0,0 UV-I 0 W/m 6,5 C -1,9 C 49,9 km/h (6 Bft)
13.01.2023 02:23 7,7 C 6,7 C 92 % 1008,2 hPa 0,0 l/m 29,0 km/h (5 Bft) S 180 0 min 0,0 UV-I 0 W/m 6,5 C -2,3 C 40,2 km/h (6 Bft)
13.01.2023 02:24 7,7 C 6,7 C 92 % 1008,3 hPa 0,0 l/m 27,4 km/h (4 Bft) S-SW 202 0 min 0,0 UV-I 0 W/m 6,5 C -1,9 C 41,8 km/h (6 Bft)
13.01.2023 02:25 7,7 C 6,7 C 92 % 1008,3 hPa 0,0 l/m 29,0 km/h (5 Bft) S-SW 202 0 min 0,0 UV-I 0 W/m 6,5 C -2,3 C 38,6 km/h (5 Bft)
13.01.2023 02:26 7,7 C 6,7 C 92 % 1008,3 hPa 0,0 l/m 22,5 km/h (4 Bft) S-SW 202 0 min 0,0 UV-I 0 W/m 6,5 C -0,5 C 32,2 km/h (5 Bft)
13.01.2023 02:27 7,7 C 6,7 C 92 % 1008,3 hPa 0,0 l/m 20,9 km/h (4 Bft) S-SW 202 0 min 0,0 UV-I 0 W/m 6,5 C 0,0 C 27,4 km/h (4 Bft)
13.01.2023 02:28 7,7 C 6,7 C 92 % 1008,2 hPa 0,2 l/m 22,5 km/h (4 Bft) S 180 0 min 0,0 UV-I 0 W/m 6,5 C -0,5 C 43,5 km/h (6 Bft)
13.01.2023 02:29 7,7 C 6,7 C 92 % 1008,4 hPa 0,0 l/m 22,5 km/h (4 Bft) S 180 0 min 0,0 UV-I 0 W/m 6,5 C -0,5 C 32,2 km/h (5 Bft)
13.01.2023 02:30 7,7 C 6,7 C 92 % 1008,4 hPa 0,2 l/m 29,0 km/h (5 Bft) S-SW 202 0 min 0,0 UV-I 0 W/m 6,5 C -2,3 C 41,8 km/h (6 Bft)
13.01.2023 02:31 7,7 C 6,7 C 92 % 1008,4 hPa 0,0 l/m 20,9 km/h (4 Bft) S-SW 202 0 min 0,0 UV-I 0 W/m 6,5 C 0,0 C 35,4 km/h (5 Bft)
13.01.2023 02:32 7,7 C 6,7 C 92 % 1008,5 hPa 0,0 l/m 16,1 km/h (3 Bft) SW 225 0 min 0,0 UV-I 0 W/m 6,5 C 1,9 C 22,5 km/h (4 Bft)
13.01.2023 02:33 7,7 C 6,7 C 92 % 1008,7 hPa 0,0 l/m 12,9 km/h (3 Bft) S-SW 202 0 min 0,0 UV-I 0 W/m 6,5 C 3,4 C 22,5 km/h (4 Bft)
13.01.2023 02:34 7,7 C 6,7 C 92 % 1008,8 hPa 0,0 l/m 19,3 km/h (3 Bft) SW 225 0 min 0,0 UV-I 0 W/m 6,5 C 0,6 C 30,6 km/h (5 Bft)
13.01.2023 02:35 7,6 C 6,7 C 92 % 1008,9 hPa 0,2 l/m 20,9 km/h (4 Bft) W 270 0 min 0,0 UV-I 0 W/m 6,4 C -0,1 C 33,8 km/h (5 Bft)
13.01.2023 02:36 7,6 C 6,7 C 92 % 1009,0 hPa 0,0 l/m 22,5 km/h (4 Bft) W-SW 247 0 min 0,0 UV-I 0 W/m 6,4 C -0,7 C 37,0 km/h (5 Bft)
13.01.2023 02:37 7,5 C 6,1 C 92 % 1009,1 hPa 0,0 l/m 19,3 km/h (3 Bft) SW 225 0 min 0,0 UV-I 0 W/m 6,3 C 0,3 C 24,1 km/h (4 Bft)
13.01.2023 02:38 7,4 C 6,1 C 91 % 1009,0 hPa 0,0 l/m 22,5 km/h (4 Bft) SW 225 0 min 0,0 UV-I 0 W/m 6,0 C -0,9 C 32,2 km/h (5 Bft)
13.01.2023 02:39 7,2 C 6,1 C 91 % 1009,1 hPa 0,0 l/m 20,9 km/h (4 Bft) W-SW 247 0 min 0,0 UV-I 0 W/m 5,8 C -0,7 C 32,2 km/h (5 Bft)
13.01.2023 02:40 7,2 C 6,1 C 91 % 1009,1 hPa 0,0 l/m 14,5 km/h (3 Bft) W-SW 247 0 min 0,0 UV-I 0 W/m 5,8 C 2,0 C 27,4 km/h (4 Bft)
13.01.2023 02:41 7,1 C 6,1 C 91 % 1009,1 hPa 0,0 l/m 12,9 km/h (3 Bft) W-SW 247 0 min 0,0 UV-I 0 W/m 5,7 C 2,7 C 20,9 km/h (4 Bft)
13.01.2023 02:42 7,0 C 5,6 C 91 % 1009,1 hPa 0,0 l/m 19,3 km/h (3 Bft) SW 225 0 min 0,0 UV-I 0 W/m 5,6 C -0,3 C 30,6 km/h (5 Bft)
13.01.2023 02:43 6,9 C 5,6 C 91 % 1009,1 hPa 0,0 l/m 9,7 km/h (2 Bft) W 270 0 min 0,0 UV-I 0 W/m 5,5 C 4,4 C 20,9 km/h (4 Bft)
13.01.2023 02:44 6,8 C 5,6 C 91 % 1009,1 hPa 0,0 l/m 14,5 km/h (3 Bft) S-SW 202 0 min 0,0 UV-I 0 W/m 5,4 C 1,5 C 24,1 km/h (4 Bft)
13.01.2023 02:45 6,8 C 5,6 C 91 % 1009,1 hPa 0,2 l/m 20,9 km/h (4 Bft) W-SW 247 0 min 0,0 UV-I 0 W/m 5,4 C -1,2 C 33,8 km/h (5 Bft)
13.01.2023 02:46 6,7 C 5,6 C 91 % 1009,1 hPa 0,0 l/m 25,7 km/h (4 Bft) W 270 0 min 0,0 UV-I 0 W/m 5,3 C -2,8 C 37,0 km/h (5 Bft)
13.01.2023 02:47 6,7 C 5,6 C 91 % 1009,1 hPa 0,0 l/m 20,9 km/h (4 Bft) SW 225 0 min 0,0 UV-I 0 W/m 5,3 C -1,3 C 38,6 km/h (5 Bft)
13.01.2023 02:48 6,6 C 5,6 C 91 % 1009,1 hPa 0,0 l/m 19,3 km/h (3 Bft) W-SW 247 0 min 0,0 UV-I 0 W/m 5,2 C -0,8 C 33,8 km/h (5 Bft)
13.01.2023 02:49 6,4 C 5,6 C 91 % 1009,2 hPa 0,0 l/m 22,5 km/h (4 Bft) W-SW 247 0 min 0,0 UV-I 0 W/m 5,0 C -2,3 C 30,6 km/h (5 Bft)
13.01.2023 02:50 6,3 C 5,0 C 91 % 1009,2 hPa 0,0 l/m 17,7 km/h (3 Bft) SW 225 0 min 0,0 UV-I 0 W/m 4,9 C -0,6 C 25,7 km/h (4 Bft)
13.01.2023 02:51 6,3 C 5,0 C 91 % 1009,1 hPa 0,0 l/m 24,1 km/h (4 Bft) SW 225 0 min 0,0 UV-I 0 W/m 4,9 C -2,9 C 43,5 km/h (6 Bft)
13.01.2023 02:52 6,2 C 5,0 C 91 % 1009,3 hPa 0,0 l/m 20,9 km/h (4 Bft) SW 225 0 min 0,0 UV-I 0 W/m 4,8 C -2,0 C 33,8 km/h (5 Bft)
13.01.2023 02:53 6,2 C 5,0 C 91 % 1009,3 hPa 0,0 l/m 16,1 km/h (3 Bft) SW 225 0 min 0,0 UV-I 0 W/m 4,8 C 0,0 C 33,8 km/h (5 Bft)
13.01.2023 02:54 6,1 C 5,0 C 91 % 1009,2 hPa 0,2 l/m 16,1 km/h (3 Bft) W-SW 247 0 min 0,0 UV-I 0 W/m 4,7 C -0,1 C 25,7 km/h (4 Bft)
13.01.2023 02:55 6,1 C 5,0 C 91 % 1009,3 hPa 0,0 l/m 20,9 km/h (4 Bft) S-SW 202 0 min 0,0 UV-I 0 W/m 4,7 C -2,1 C 37,0 km/h (5 Bft)
13.01.2023 02:56 6,0 C 5,0 C 91 % 1009,3 hPa 0,0 l/m 19,3 km/h (3 Bft) W-SW 247 0 min 0,0 UV-I 0 W/m 4,6 C -1,6 C 30,6 km/h (5 Bft)
13.01.2023 02:57 6,0 C 5,0 C 91 % 1009,3 hPa 0,0 l/m 16,1 km/h (3 Bft) SW 225 0 min 0,0 UV-I 0 W/m 4,6 C -0,2 C 29,0 km/h (5 Bft)
13.01.2023 02:58 5,9 C 5,0 C 91 % 1009,3 hPa 0,0 l/m 16,1 km/h (3 Bft) W-SW 247 0 min 0,0 UV-I 0 W/m 4,5 C -0,4 C 24,1 km/h (4 Bft)
13.01.2023 02:59 5,9 C 5,0 C 91 % 1009,3 hPa 0,0 l/m 16,1 km/h (3 Bft) S-SW 202 0 min 0,0 UV-I 0 W/m 4,5 C -0,4 C 25,7 km/h (4 Bft)
13.01.2023 03:00 5,8 C 5,0 C 91 % 1009,2 hPa 0,0 l/m 14,5 km/h (3 Bft) S-SW 202 0 min 0,0 UV-I 0 W/m 4,4 C 0,3 C 20,9 km/h (4 Bft)
13.01.2023 03:01 5,8 C 5,0 C 91 % 1009,3 hPa 0,2 l/m 22,5 km/h (4 Bft) W-SW 247 0 min 0,0 UV-I 0 W/m 4,4 C -3,0 C 29,0 km/h (5 Bft)
13.01.2023 03:02 5,8 C 5,0 C 91 % 1009,3 hPa 0,0 l/m 22,5 km/h (4 Bft) S 180 0 min 0,0 UV-I 0 W/m 4,4 C -3,0 C 35,4 km/h (5 Bft)
13.01.2023 03:03 5,8 C 5,0 C 91 % 1009,3 hPa 0,0 l/m 14,5 km/h (3 Bft) SW 225 0 min 0,0 UV-I 0 W/m 4,4 C 0,3 C 24,1 km/h (4 Bft)
13.01.2023 03:04 5,7 C 5,0 C 91 % 1009,2 hPa 0,0 l/m 22,5 km/h (4 Bft) SW 225 0 min 0,0 UV-I 0 W/m 4,3 C -3,2 C 32,2 km/h (5 Bft)
13.01.2023 03:05 5,7 C 5,0 C 91 % 1009,3 hPa 0,0 l/m 19,3 km/h (3 Bft) SW 225 0 min 0,0 UV-I 0 W/m 4,3 C -2,0 C 32,2 km/h (5 Bft)
13.01.2023 03:06 5,7 C 5,0 C 91 % 1009,3 hPa 0,0 l/m 14,5 km/h (3 Bft) SW 225 0 min 0,0 UV-I 0 W/m 4,3 C 0,2 C 22,5 km/h (4 Bft)
13.01.2023 03:07 5,7 C 5,0 C 91 % 1009,3 hPa 0,0 l/m 16,1 km/h (3 Bft) SW 225 0 min 0,0 UV-I 0 W/m 4,3 C -0,6 C 30,6 km/h (5 Bft)
13.01.2023 03:08 5,7 C 5,0 C 91 % 1009,2 hPa 0,0 l/m 22,5 km/h (4 Bft) SW 225 0 min 0,0 UV-I 0 W/m 4,3 C -3,2 C 33,8 km/h (5 Bft)
13.01.2023 03:09 5,7 C 5,0 C 91 % 1009,2 hPa 0,0 l/m 17,7 km/h (3 Bft) SW 225 0 min 0,0 UV-I 0 W/m 4,3 C -1,3 C 22,5 km/h (4 Bft)
13.01.2023 03:10 5,6 C 5,0 C 91 % 1009,2 hPa 0,0 l/m 11,3 km/h (2 Bft) S-SW 202 0 min 0,0 UV-I 0 W/m 4,2 C 1,9 C 17,7 km/h (3 Bft)
13.01.2023 03:11 5,6 C 4,4 C 91 % 1009,2 hPa 0,0 l/m 22,5 km/h (4 Bft) S-SW 202 0 min 0,0 UV-I 0 W/m 4,2 C -3,3 C 32,2 km/h (5 Bft)
13.01.2023 03:12 5,6 C 4,4 C 91 % 1009,2 hPa 0,0 l/m 16,1 km/h (3 Bft) SW 225 0 min 0,0 UV-I 0 W/m 4,2 C -0,7 C 22,5 km/h (4 Bft)
13.01.2023 03:13 5,6 C 4,4 C 91 % 1009,2 hPa 0,0 l/m 19,3 km/h (3 Bft) S-SW 202 0 min 0,0 UV-I 0 W/m 4,2 C -2,1 C 27,4 km/h (4 Bft)
13.01.2023 03:14 5,6 C 4,4 C 91 % 1009,2 hPa 0,0 l/m 17,7 km/h (3 Bft) S-SW 202 0 min 0,0 UV-I 0 W/m 4,2 C -1,5 C 27,4 km/h (4 Bft)
13.01.2023 03:15 5,5 C 4,4 C 91 % 1009,2 hPa 0,0 l/m 14,5 km/h (3 Bft) S-SW 202 0 min 0,0 UV-I 0 W/m 4,2 C -0,1 C 20,9 km/h (4 Bft)
13.01.2023 03:16 5,6 C 4,4 C 91 % 1009,2 hPa 0,0 l/m 11,3 km/h (2 Bft) S-SW 202 0 min 0,0 UV-I 0 W/m 4,2 C 1,9 C 17,7 km/h (3 Bft)
13.01.2023 03:17 5,5 C 4,4 C 91 % 1009,1 hPa 0,0 l/m 17,7 km/h (3 Bft) S-SW 202 0 min 0,0 UV-I 0 W/m 4,2 C -1,6 C 32,2 km/h (5 Bft)
13.01.2023 03:18 5,5 C 4,4 C 91 % 1009,2 hPa 0,0 l/m 19,3 km/h (3 Bft) SW 225 0 min 0,0 UV-I 0 W/m 4,2 C -2,2 C 35,4 km/h (5 Bft)
13.01.2023 03:19 5,4 C 4,4 C 91 % 1009,2 hPa 0,0 l/m 20,9 km/h (4 Bft) S-SW 202 0 min 0,0 UV-I 0 W/m 4,1 C -3,0 C 32,2 km/h (5 Bft)
13.01.2023 03:20 5,4 C 4,4 C 91 % 1009,3 hPa 0,2 l/m 22,5 km/h (4 Bft) SW 225 0 min 0,0 UV-I 0 W/m 4,1 C -3,6 C 30,6 km/h (5 Bft)
13.01.2023 03:21 5,4 C 4,4 C 91 % 1009,3 hPa 0,0 l/m 22,5 km/h (4 Bft) S-SW 202 0 min 0,0 UV-I 0 W/m 4,1 C -3,6 C 30,6 km/h (5 Bft)
13.01.2023 03:22 5,4 C 4,4 C 91 % 1009,0 hPa 0,0 l/m 25,7 km/h (4 Bft) SW 225 0 min 0,0 UV-I 0 W/m 4,1 C -4,6 C 38,6 km/h (5 Bft)
13.01.2023 03:23 5,4 C 4,4 C 90 % 1009,1 hPa 0,0 l/m 22,5 km/h (4 Bft) S-SW 202 0 min 0,0 UV-I 0 W/m 3,9 C -3,6 C 35,4 km/h (5 Bft)
13.01.2023 03:24 5,4 C 4,4 C 90 % 1009,0 hPa 0,0 l/m 19,3 km/h (3 Bft) S-SW 202 0 min 0,0 UV-I 0 W/m 3,9 C -2,4 C 29,0 km/h (5 Bft)
13.01.2023 03:25 5,4 C 4,4 C 90 % 1009,0 hPa 0,0 l/m 12,9 km/h (3 Bft) S-SW 202 0 min 0,0 UV-I 0 W/m 3,9 C 0,7 C 19,3 km/h (3 Bft)
13.01.2023 03:26 5,3 C 4,4 C 90 % 1009,0 hPa 0,0 l/m 14,5 km/h (3 Bft) S-SW 202 0 min 0,0 UV-I 0 W/m 3,8 C -0,3 C 24,1 km/h (4 Bft)
13.01.2023 03:27 5,3 C 4,4 C 90 % 1009,0 hPa 0,0 l/m 17,7 km/h (3 Bft) S-SW 202 0 min 0,0 UV-I 0 W/m 3,8 C -1,8 C 24,1 km/h (4 Bft)
13.01.2023 03:28 5,3 C 4,4 C 90 % 1009,0 hPa 0,0 l/m 17,7 km/h (3 Bft) S-SW 202 0 min 0,0 UV-I 0 W/m 3,8 C -1,8 C 24,1 km/h (4 Bft)
13.01.2023 03:29 5,3 C 4,4 C 90 % 1009,0 hPa 0,0 l/m 16,1 km/h (3 Bft) S-SW 202 0 min 0,0 UV-I 0 W/m 3,8 C -1,1 C 20,9 km/h (4 Bft)
13.01.2023 03:30 5,3 C 4,4 C 90 % 1009,0 hPa 0,0 l/m 17,7 km/h (3 Bft) S-SW 202 0 min 0,0 UV-I 0 W/m 3,8 C -1,8 C 24,1 km/h (4 Bft)
13.01.2023 03:31 5,3 C 4,4 C 90 % 1009,0 hPa 0,0 l/m 19,3 km/h (3 Bft) S-SW 202 0 min 0,0 UV-I 0 W/m 3,8 C -2,5 C 29,0 km/h (5 Bft)
13.01.2023 03:32 5,3 C 4,4 C 90 % 1008,9 hPa 0,0 l/m 19,3 km/h (3 Bft) S-SW 202 0 min 0,0 UV-I 0 W/m 3,8 C -2,5 C 25,7 km/h (4 Bft)
13.01.2023 03:33 5,3 C 4,4 C 90 % 1008,9 hPa 0,0 l/m 16,1 km/h (3 Bft) S-SW 202 0 min 0,0 UV-I 0 W/m 3,8 C -1,1 C 24,1 km/h (4 Bft)
13.01.2023 03:34 5,3 C 4,4 C 90 % 1008,9 hPa 0,0 l/m 14,5 km/h (3 Bft) S-SW 202 0 min 0,0 UV-I 0 W/m 3,8 C -0,3 C 16,1 km/h (3 Bft)
13.01.2023 03:35 5,3 C 4,4 C 90 % 1008,9 hPa 0,0 l/m 16,1 km/h (3 Bft) S-SW 202 0 min 0,0 UV-I 0 W/m 3,8 C -1,1 C 22,5 km/h (4 Bft)
13.01.2023 03:36 5,3 C 4,4 C 90 % 1008,9 hPa 0,0 l/m 17,7 km/h (3 Bft) S-SW 202 0 min 0,0 UV-I 0 W/m 3,8 C -1,8 C 22,5 km/h (4 Bft)
13.01.2023 03:37 5,3 C 4,4 C 90 % 1008,9 hPa 0,0 l/m 14,5 km/h (3 Bft) S-SW 202 0 min 0,0 UV-I 0 W/m 3,8 C -0,3 C 17,7 km/h (3 Bft)
13.01.2023 03:38 5,3 C 4,4 C 90 % 1008,9 hPa 0,0 l/m 17,7 km/h (3 Bft) S-SW 202 0 min 0,0 UV-I 0 W/m 3,8 C -1,8 C 24,1 km/h (4 Bft)
13.01.2023 03:39 5,3 C 4,4 C 90 % 1008,8 hPa 0,0 l/m 19,3 km/h (3 Bft) S-SW 202 0 min 0,0 UV-I 0 W/m 3,8 C -2,5 C 29,0 km/h (5 Bft)
13.01.2023 03:40 5,3 C 4,4 C 90 % 1008,9 hPa 0,0 l/m 17,7 km/h (3 Bft) SW 225 0 min 0,0 UV-I 0 W/m 3,8 C -1,8 C 25,7 km/h (4 Bft)
13.01.2023 03:41 5,2 C 4,4 C 90 % 1008,9 hPa 0,0 l/m 20,9 km/h (4 Bft) S-SW 202 0 min 0,0 UV-I 0 W/m 3,7 C -3,3 C 30,6 km/h (5 Bft)
13.01.2023 03:42 5,2 C 4,4 C 90 % 1008,9 hPa 0,0 l/m 19,3 km/h (3 Bft) S 180 0 min 0,0 UV-I 0 W/m 3,7 C -2,6 C 27,4 km/h (4 Bft)
13.01.2023 03:43 5,2 C 4,4 C 90 % 1008,9 hPa 0,0 l/m 17,7 km/h (3 Bft) S-SW 202 0 min 0,0 UV-I 0 W/m 3,7 C -2,0 C 24,1 km/h (4 Bft)
13.01.2023 03:44 5,2 C 4,4 C 90 % 1008,9 hPa 0,0 l/m 20,9 km/h (4 Bft) S 180 0 min 0,0 UV-I 0 W/m 3,7 C -3,3 C 32,2 km/h (5 Bft)
13.01.2023 03:45 5,2 C 4,4 C 90 % 1008,9 hPa 0,0 l/m 19,3 km/h (3 Bft) S-SW 202 0 min 0,0 UV-I 0 W/m 3,7 C -2,6 C 24,1 km/h (4 Bft)
13.01.2023 03:46 5,2 C 4,4 C 90 % 1008,9 hPa 0,0 l/m 16,1 km/h (3 Bft) S-SW 202 0 min 0,0 UV-I 0 W/m 3,7 C -1,2 C 22,5 km/h (4 Bft)
13.01.2023 03:47 5,2 C 4,4 C 90 % 1008,9 hPa 0,0 l/m 16,1 km/h (3 Bft) S-SW 202 0 min 0,0 UV-I 0 W/m 3,7 C -1,2 C 20,9 km/h (4 Bft)
13.01.2023 03:48 5,2 C 4,4 C 90 % 1008,9 hPa 0,0 l/m 17,7 km/h (3 Bft) S-SW 202 0 min 0,0 UV-I 0 W/m 3,7 C -2,0 C 22,5 km/h (4 Bft)
13.01.2023 03:49 5,2 C 4,4 C 90 % 1009,0 hPa 0,0 l/m 16,1 km/h (3 Bft) S-SW 202 0 min 0,0 UV-I 0 W/m 3,7 C -1,2 C 25,7 km/h (4 Bft)
13.01.2023 03:50 5,3 C 4,4 C 90 % 1008,9 hPa 0,0 l/m 16,1 km/h (3 Bft) S-SW 202 0 min 0,0 UV-I 0 W/m 3,8 C -1,1 C 27,4 km/h (4 Bft)
13.01.2023 03:51 5,2 C 4,4 C 90 % 1009,0 hPa 0,0 l/m 20,9 km/h (4 Bft) S-SW 202 0 min 0,0 UV-I 0 W/m 3,7 C -3,3 C 27,4 km/h (4 Bft)
13.01.2023 03:52 5,2 C 4,4 C 90 % 1008,9 hPa 0,0 l/m 16,1 km/h (3 Bft) S-SW 202 0 min 0,0 UV-I 0 W/m 3,7 C -1,2 C 22,5 km/h (4 Bft)
13.01.2023 03:53 5,3 C 4,4 C 90 % 1009,0 hPa 0,0 l/m 17,7 km/h (3 Bft) S-SW 202 0 min 0,0 UV-I 0 W/m 3,8 C -1,8 C 22,5 km/h (4 Bft)
13.01.2023 03:54 5,2 C 4,4 C 90 % 1008,9 hPa 0,0 l/m 20,9 km/h (4 Bft) SW 225 0 min 0,0 UV-I 0 W/m 3,7 C -3,3 C 30,6 km/h (5 Bft)
13.01.2023 03:55 5,2 C 4,4 C 90 % 1008,9 hPa 0,0 l/m 17,7 km/h (3 Bft) S-SW 202 0 min 0,0 UV-I 0 W/m 3,7 C -2,0 C 20,9 km/h (4 Bft)
13.01.2023 03:56 5,3 C 4,4 C 90 % 1008,9 hPa 0,0 l/m 17,7 km/h (3 Bft) S-SW 202 0 min 0,0 UV-I 0 W/m 3,8 C -1,8 C 25,7 km/h (4 Bft)
13.01.2023 03:57 5,2 C 4,4 C 90 % 1008,9 hPa 0,0 l/m 19,3 km/h (3 Bft) S-SW 202 0 min 0,0 UV-I 0 W/m 3,7 C -2,6 C 25,7 km/h (4 Bft)
13.01.2023 03:58 5,2 C 4,4 C 90 % 1008,8 hPa 0,0 l/m 14,5 km/h (3 Bft) S-SW 202 0 min 0,0 UV-I 0 W/m 3,7 C -0,4 C 19,3 km/h (3 Bft)
13.01.2023 03:59 5,2 C 4,4 C 90 % 1008,8 hPa 0,0 l/m 16,1 km/h (3 Bft) S-SW 202 0 min 0,0 UV-I 0 W/m 3,7 C -1,2 C 20,9 km/h (4 Bft)
13.01.2023 04:00 5,2 C 4,4 C 90 % 1008,8 hPa 0,0 l/m 14,5 km/h (3 Bft) S-SW 202 0 min 0,0 UV-I 0 W/m 3,7 C -0,4 C 24,1 km/h (4 Bft)
13.01.2023 04:01 5,2 C 4,4 C 90 % 1008,7 hPa 0,0 l/m 14,5 km/h (3 Bft) S-SW 202 0 min 0,0 UV-I 0 W/m 3,7 C -0,4 C 20,9 km/h (4 Bft)
13.01.2023 04:02 5,2 C 4,4 C 90 % 1008,8 hPa 0,0 l/m 16,1 km/h (3 Bft) S-SW 202 0 min 0,0 UV-I 0 W/m 3,7 C -1,2 C 24,1 km/h (4 Bft)
13.01.2023 04:03 5,2 C 4,4 C 90 % 1008,7 hPa 0,0 l/m 16,1 km/h (3 Bft) S-SW 202 0 min 0,0 UV-I 0 W/m 3,7 C -1,2 C 27,4 km/h (4 Bft)
13.01.2023 04:04 5,2 C 4,4 C 90 % 1008,8 hPa 0,0 l/m 17,7 km/h (3 Bft) S-SW 202 0 min 0,0 UV-I 0 W/m 3,7 C -2,0 C 25,7 km/h (4 Bft)
13.01.2023 04:05 5,2 C 4,4 C 90 % 1008,8 hPa 0,0 l/m 14,5 km/h (3 Bft) S-SW 202 0 min 0,0 UV-I 0 W/m 3,7 C -0,4 C 19,3 km/h (3 Bft)
13.01.2023 04:06 5,2 C 4,4 C 90 % 1008,7 hPa 0,0 l/m 12,9 km/h (3 Bft) S-SW 202 0 min 0,0 UV-I 0 W/m 3,7 C 0,5 C 17,7 km/h (3 Bft)
13.01.2023 04:07 5,2 C 4,4 C 90 % 1008,8 hPa 0,0 l/m 9,7 km/h (2 Bft) S-SW 202 0 min 0,0 UV-I 0 W/m 3,7 C 2,5 C 12,9 km/h (3 Bft)
13.01.2023 04:08 5,2 C 4,4 C 90 % 1008,9 hPa 0,0 l/m 12,9 km/h (3 Bft) S-SW 202 0 min 0,0 UV-I 0 W/m 3,7 C 0,5 C 19,3 km/h (3 Bft)
13.01.2023 04:09 5,2 C 4,4 C 90 % 1008,8 hPa 0,0 l/m 16,1 km/h (3 Bft) S-SW 202 0 min 0,0 UV-I 0 W/m 3,7 C -1,2 C 24,1 km/h (4 Bft)
13.01.2023 04:10 5,2 C 4,4 C 90 % 1008,8 hPa 0,0 l/m 12,9 km/h (3 Bft) S-SW 202 0 min 0,0 UV-I 0 W/m 3,7 C 0,5 C 17,7 km/h (3 Bft)
13.01.2023 04:11 5,2 C 4,4 C 90 % 1008,9 hPa 0,0 l/m 14,5 km/h (3 Bft) S-SW 202 0 min 0,0 UV-I 0 W/m 3,7 C -0,4 C 19,3 km/h (3 Bft)
13.01.2023 04:12 5,2 C 4,4 C 90 % 1008,8 hPa 0,0 l/m 12,9 km/h (3 Bft) S-SW 202 0 min 0,0 UV-I 0 W/m 3,7 C 0,5 C 19,3 km/h (3 Bft)
13.01.2023 04:13 5,2 C 4,4 C 90 % 1008,8 hPa 0,0 l/m 17,7 km/h (3 Bft) S-SW 202 0 min 0,0 UV-I 0 W/m 3,7 C -2,0 C 24,1 km/h (4 Bft)
13.01.2023 04:14 5,2 C 4,4 C 90 % 1008,7 hPa 0,0 l/m 19,3 km/h (3 Bft) S-SW 202 0 min 0,0 UV-I 0 W/m 3,7 C -2,6 C 27,4 km/h (4 Bft)
13.01.2023 04:15 5,2 C 4,4 C 90 % 1008,8 hPa 0,0 l/m 16,1 km/h (3 Bft) S-SW 202 0 min 0,0 UV-I 0 W/m 3,7 C -1,2 C 20,9 km/h (4 Bft)
13.01.2023 04:16 5,3 C 4,4 C 90 % 1008,8 hPa 0,0 l/m 14,5 km/h (3 Bft) S-SW 202 0 min 0,0 UV-I 0 W/m 3,8 C -0,3 C 16,1 km/h (3 Bft)
13.01.2023 04:17 5,2 C 4,4 C 90 % 1008,8 hPa 0,0 l/m 16,1 km/h (3 Bft) S-SW 202 0 min 0,0 UV-I 0 W/m 3,7 C -1,2 C 20,9 km/h (4 Bft)
13.01.2023 04:18 5,2 C 4,4 C 90 % 1008,9 hPa 0,0 l/m 12,9 km/h (3 Bft) S-SW 202 0 min 0,0 UV-I 0 W/m 3,7 C 0,5 C 17,7 km/h (3 Bft)
13.01.2023 04:19 5,2 C 4,4 C 90 % 1008,9 hPa 0,0 l/m 12,9 km/h (3 Bft) S-SW 202 0 min 0,0 UV-I 0 W/m 3,7 C 0,5 C 19,3 km/h (3 Bft)
13.01.2023 04:20 5,2 C 4,4 C 90 % 1008,9 hPa 0,0 l/m 16,1 km/h (3 Bft) S-SW 202 0 min 0,0 UV-I 0 W/m 3,7 C -1,2 C 17,7 km/h (3 Bft)
13.01.2023 04:21 5,2 C 4,4 C 90 % 1009,0 hPa 0,0 l/m 16,1 km/h (3 Bft) S 180 0 min 0,0 UV-I 0 W/m 3,7 C -1,2 C 24,1 km/h (4 Bft)
13.01.2023 04:22 5,2 C 4,4 C 90 % 1009,0 hPa 0,0 l/m 17,7 km/h (3 Bft) S-SW 202 0 min 0,0 UV-I 0 W/m 3,7 C -2,0 C 24,1 km/h (4 Bft)
13.01.2023 04:23 5,2 C 4,4 C 90 % 1009,1 hPa 0,0 l/m 19,3 km/h (3 Bft) S-SW 202 0 min 0,0 UV-I 0 W/m 3,7 C -2,6 C 24,1 km/h (4 Bft)
13.01.2023 04:24 5,2 C 4,4 C 90 % 1009,1 hPa 0,0 l/m 17,7 km/h (3 Bft) S-SW 202 0 min 0,0 UV-I 0 W/m 3,7 C -2,0 C 22,5 km/h (4 Bft)
13.01.2023 04:25 5,2 C 4,4 C 90 % 1009,1 hPa 0,0 l/m 16,1 km/h (3 Bft) S-SW 202 0 min 0,0 UV-I 0 W/m 3,7 C -1,2 C 19,3 km/h (3 Bft)
13.01.2023 04:26 5,2 C 4,4 C 90 % 1009,2 hPa 0,0 l/m 16,1 km/h (3 Bft) S-SW 202 0 min 0,0 UV-I 0 W/m 3,7 C -1,2 C 22,5 km/h (4 Bft)
13.01.2023 04:27 5,2 C 4,4 C 90 % 1009,3 hPa 0,0 l/m 16,1 km/h (3 Bft) S-SW 202 0 min 0,0 UV-I 0 W/m 3,7 C -1,2 C 22,5 km/h (4 Bft)
13.01.2023 04:28 5,2 C 4,4 C 90 % 1009,2 hPa 0,0 l/m 14,5 km/h (3 Bft) S-SW 202 0 min 0,0 UV-I 0 W/m 3,7 C -0,4 C 19,3 km/h (3 Bft)
13.01.2023 04:29 5,2 C 4,4 C 89 % 1009,1 hPa 0,0 l/m 16,1 km/h (3 Bft) S-SW 202 0 min 0,0 UV-I 0 W/m 3,5 C -1,2 C 22,5 km/h (4 Bft)
13.01.2023 04:30 5,2 C 4,4 C 90 % 1009,1 hPa 0,0 l/m 12,9 km/h (3 Bft) S-SW 202 0 min 0,0 UV-I 0 W/m 3,7 C 0,5 C 17,7 km/h (3 Bft)
13.01.2023 04:31 5,2 C 4,4 C 90 % 1009,2 hPa 0,0 l/m 9,7 km/h (2 Bft) S 180 0 min 0,0 UV-I 0 W/m 3,7 C 2,5 C 14,5 km/h (3 Bft)
13.01.2023 04:32 5,2 C 4,4 C 90 % 1009,1 hPa 0,0 l/m 12,9 km/h (3 Bft) S-SW 202 0 min 0,0 UV-I 0 W/m 3,7 C 0,5 C 14,5 km/h (3 Bft)
13.01.2023 04:33 5,1 C 4,4 C 90 % 1009,0 hPa 0,0 l/m 12,9 km/h (3 Bft) S-SW 202 0 min 0,0 UV-I 0 W/m 3,6 C 0,3 C 20,9 km/h (4 Bft)
13.01.2023 04:34 5,2 C 4,4 C 90 % 1009,1 hPa 0,0 l/m 17,7 km/h (3 Bft) S-SW 202 0 min 0,0 UV-I 0 W/m 3,7 C -2,0 C 25,7 km/h (4 Bft)
13.01.2023 04:35 5,1 C 4,4 C 90 % 1008,9 hPa 0,0 l/m 11,3 km/h (2 Bft) S 180 0 min 0,0 UV-I 0 W/m 3,6 C 1,3 C 14,5 km/h (3 Bft)
13.01.2023 04:36 5,1 C 4,4 C 90 % 1008,9 hPa 0,2 l/m 14,5 km/h (3 Bft) S-SW 202 0 min 0,0 UV-I 0 W/m 3,6 C -0,5 C 19,3 km/h (3 Bft)
13.01.2023 04:37 5,1 C 3,9 C 90 % 1008,9 hPa 0,0 l/m 17,7 km/h (3 Bft) S-SW 202 0 min 0,0 UV-I 0 W/m 3,6 C -2,1 C 27,4 km/h (4 Bft)
13.01.2023 04:38 5,1 C 3,9 C 89 % 1008,8 hPa 0,0 l/m 22,5 km/h (4 Bft) S-SW 202 0 min 0,0 UV-I 0 W/m 3,4 C -4,0 C 35,4 km/h (5 Bft)
13.01.2023 04:39 5,0 C 3,9 C 89 % 1008,8 hPa 0,0 l/m 17,7 km/h (3 Bft) S-SW 202 0 min 0,0 UV-I 0 W/m 3,3 C -2,2 C 24,1 km/h (4 Bft)
13.01.2023 04:40 4,9 C 3,9 C 89 % 1008,8 hPa 0,0 l/m 19,3 km/h (3 Bft) S-SW 202 0 min 0,0 UV-I 0 W/m 3,2 C -3,0 C 22,5 km/h (4 Bft)
13.01.2023 04:41 4,9 C 3,9 C 89 % 1008,8 hPa 0,0 l/m 19,3 km/h (3 Bft) S-SW 202 0 min 0,0 UV-I 0 W/m 3,2 C -3,0 C 27,4 km/h (4 Bft)
13.01.2023 04:42 4,9 C 3,9 C 89 % 1008,7 hPa 0,0 l/m 19,3 km/h (3 Bft) S 180 0 min 0,0 UV-I 0 W/m 3,2 C -3,0 C 27,4 km/h (4 Bft)
13.01.2023 04:43 4,9 C 3,9 C 89 % 1008,8 hPa 0,0 l/m 16,1 km/h (3 Bft) S-SW 202 0 min 0,0 UV-I 0 W/m 3,2 C -1,6 C 22,5 km/h (4 Bft)
13.01.2023 04:44 4,9 C 3,9 C 89 % 1008,7 hPa 0,0 l/m 14,5 km/h (3 Bft) S 180 0 min 0,0 UV-I 0 W/m 3,2 C -0,8 C 19,3 km/h (3 Bft)
13.01.2023 04:45 4,9 C 3,9 C 89 % 1008,7 hPa 0,0 l/m 16,1 km/h (3 Bft) S-SW 202 0 min 0,0 UV-I 0 W/m 3,2 C -1,6 C 22,5 km/h (4 Bft)
13.01.2023 04:46 4,9 C 3,9 C 89 % 1008,7 hPa 0,0 l/m 20,9 km/h (4 Bft) S-SW 202 0 min 0,0 UV-I 0 W/m 3,2 C -3,7 C 27,4 km/h (4 Bft)
13.01.2023 04:47 4,8 C 3,9 C 89 % 1008,6 hPa 0,0 l/m 20,9 km/h (4 Bft) S-SW 202 0 min 0,0 UV-I 0 W/m 3,1 C -3,8 C 25,7 km/h (4 Bft)
13.01.2023 04:48 4,8 C 3,9 C 89 % 1008,6 hPa 0,0 l/m 20,9 km/h (4 Bft) S-SW 202 0 min 0,0 UV-I 0 W/m 3,1 C -3,8 C 25,7 km/h (4 Bft)
13.01.2023 04:49 4,8 C 3,9 C 89 % 1008,7 hPa 0,0 l/m 22,5 km/h (4 Bft) S-SW 202 0 min 0,0 UV-I 0 W/m 3,1 C -4,4 C 30,6 km/h (5 Bft)
13.01.2023 04:50 4,8 C 3,9 C 89 % 1008,7 hPa 0,0 l/m 17,7 km/h (3 Bft) S-SW 202 0 min 0,0 UV-I 0 W/m 3,1 C -2,5 C 22,5 km/h (4 Bft)
13.01.2023 04:51 4,8 C 3,9 C 89 % 1008,7 hPa 0,0 l/m 16,1 km/h (3 Bft) S-SW 202 0 min 0,0 UV-I 0 W/m 3,1 C -1,7 C 20,9 km/h (4 Bft)
13.01.2023 04:52 4,8 C 3,9 C 89 % 1008,6 hPa 0,0 l/m 17,7 km/h (3 Bft) S-SW 202 0 min 0,0 UV-I 0 W/m 3,1 C -2,5 C 25,7 km/h (4 Bft)
13.01.2023 04:53 4,8 C 3,9 C 89 % 1008,7 hPa 0,0 l/m 19,3 km/h (3 Bft) S-SW 202 0 min 0,0 UV-I 0 W/m 3,1 C -3,1 C 24,1 km/h (4 Bft)
13.01.2023 04:54 4,8 C 3,9 C 89 % 1008,6 hPa 0,0 l/m 16,1 km/h (3 Bft) S-SW 202 0 min 0,0 UV-I 0 W/m 3,1 C -1,7 C 22,5 km/h (4 Bft)
13.01.2023 04:55 4,8 C 3,9 C 89 % 1008,7 hPa 0,0 l/m 17,7 km/h (3 Bft) S-SW 202 0 min 0,0 UV-I 0 W/m 3,1 C -2,5 C 24,1 km/h (4 Bft)
13.01.2023 04:56 4,8 C 3,9 C 89 % 1008,6 hPa 0,0 l/m 16,1 km/h (3 Bft) S-SW 202 0 min 0,0 UV-I 0 W/m 3,1 C -1,7 C 22,5 km/h (4 Bft)
13.01.2023 04:57 4,8 C 3,9 C 89 % 1008,6 hPa 0,0 l/m 16,1 km/h (3 Bft) S-SW 202 0 min 0,0 UV-I 0 W/m 3,1 C -1,7 C 20,9 km/h (4 Bft)
13.01.2023 04:58 4,7 C 3,3 C 89 % 1008,7 hPa 0,0 l/m 16,1 km/h (3 Bft) S-SW 202 0 min 0,0 UV-I 0 W/m 3,0 C -1,8 C 24,1 km/h (4 Bft)
13.01.2023 04:59 4,7 C 3,3 C 89 % 1008,5 hPa 0,0 l/m 17,7 km/h (3 Bft) S-SW 202 0 min 0,0 UV-I 0 W/m 3,0 C -2,6 C 24,1 km/h (4 Bft)
13.01.2023 05:00 4,7 C 3,3 C 89 % 1008,6 hPa 0,0 l/m 19,3 km/h (3 Bft) S-SW 202 0 min 0,0 UV-I 0 W/m 3,0 C -3,3 C 25,7 km/h (4 Bft)
13.01.2023 05:01 4,7 C 3,3 C 89 % 1008,7 hPa 0,0 l/m 16,1 km/h (3 Bft) S-SW 202 0 min 0,0 UV-I 0 W/m 3,0 C -1,8 C 24,1 km/h (4 Bft)
13.01.2023 05:02 4,7 C 3,3 C 89 % 1008,8 hPa 0,0 l/m 12,9 km/h (3 Bft) S-SW 202 0 min 0,0 UV-I 0 W/m 3,0 C -0,1 C 16,1 km/h (3 Bft)
13.01.2023 05:03 4,7 C 3,3 C 89 % 1008,7 hPa 0,0 l/m 16,1 km/h (3 Bft) S-SW 202 0 min 0,0 UV-I 0 W/m 3,0 C -1,8 C 20,9 km/h (4 Bft)
13.01.2023 05:04 4,7 C 3,3 C 89 % 1008,8 hPa 0,0 l/m 14,5 km/h (3 Bft) S-SW 202 0 min 0,0 UV-I 0 W/m 3,0 C -1,0 C 17,7 km/h (3 Bft)
13.01.2023 05:05 4,6 C 3,3 C 89 % 1008,8 hPa 0,0 l/m 12,9 km/h (3 Bft) S-SW 202 0 min 0,0 UV-I 0 W/m 2,9 C -0,2 C 19,3 km/h (3 Bft)
13.01.2023 05:06 4,7 C 3,3 C 89 % 1008,8 hPa 0,0 l/m 19,3 km/h (3 Bft) S-SW 202 0 min 0,0 UV-I 0 W/m 3,0 C -3,3 C 27,4 km/h (4 Bft)
13.01.2023 05:07 4,7 C 3,3 C 89 % 1008,8 hPa 0,0 l/m 19,3 km/h (3 Bft) S-SW 202 0 min 0,0 UV-I 0 W/m 3,0 C -3,3 C 24,1 km/h (4 Bft)
13.01.2023 05:08 4,7 C 3,3 C 89 % 1008,9 hPa 0,0 l/m 19,3 km/h (3 Bft) S-SW 202 0 min 0,0 UV-I 0 W/m 3,0 C -3,3 C 24,1 km/h (4 Bft)
13.01.2023 05:09 4,6 C 3,3 C 89 % 1008,8 hPa 0,0 l/m 17,7 km/h (3 Bft) S-SW 202 0 min 0,0 UV-I 0 W/m 2,9 C -2,7 C 24,1 km/h (4 Bft)
13.01.2023 05:10 4,6 C 3,3 C 89 % 1008,9 hPa 0,0 l/m 17,7 km/h (3 Bft) S-SW 202 0 min 0,0 UV-I 0 W/m 2,9 C -2,7 C 24,1 km/h (4 Bft)
13.01.2023 05:11 4,6 C 3,3 C 89 % 1008,9 hPa 0,0 l/m 16,1 km/h (3 Bft) S-SW 202 0 min 0,0 UV-I 0 W/m 2,9 C -2,0 C 20,9 km/h (4 Bft)
13.01.2023 05:12 4,6 C 3,9 C 89 % 1008,9 hPa 0,0 l/m 14,5 km/h (3 Bft) S-SW 202 0 min 0,0 UV-I 0 W/m 2,9 C -1,1 C 19,3 km/h (3 Bft)
13.01.2023 05:13 4,6 C 3,9 C 89 % 1009,0 hPa 0,0 l/m 16,1 km/h (3 Bft) S-SW 202 0 min 0,0 UV-I 0 W/m 2,9 C -2,0 C 20,9 km/h (4 Bft)
13.01.2023 05:14 4,6 C 3,9 C 89 % 1008,9 hPa 0,0 l/m 16,1 km/h (3 Bft) S-SW 202 0 min 0,0 UV-I 0 W/m 2,9 C -2,0 C 19,3 km/h (3 Bft)
13.01.2023 05:15 4,6 C 3,9 C 89 % 1008,9 hPa 0,0 l/m 20,9 km/h (4 Bft) S-SW 202 0 min 0,0 UV-I 0 W/m 2,9 C -4,0 C 25,7 km/h (4 Bft)
13.01.2023 05:16 4,6 C 3,9 C 89 % 1009,1 hPa 0,0 l/m 17,7 km/h (3 Bft) S-SW 202 0 min 0,0 UV-I 0 W/m 2,9 C -2,7 C 24,1 km/h (4 Bft)
13.01.2023 05:17 4,6 C 3,9 C 89 % 1008,9 hPa 0,0 l/m 14,5 km/h (3 Bft) S-SW 202 0 min 0,0 UV-I 0 W/m 2,9 C -1,1 C 22,5 km/h (4 Bft)
13.01.2023 05:18 4,6 C 3,9 C 89 % 1008,9 hPa 0,0 l/m 12,9 km/h (3 Bft) S-SW 202 0 min 0,0 UV-I 0 W/m 2,9 C -0,2 C 16,1 km/h (3 Bft)
13.01.2023 05:19 4,6 C 3,9 C 89 % 1008,9 hPa 0,0 l/m 14,5 km/h (3 Bft) S-SW 202 0 min 0,0 UV-I 0 W/m 2,9 C -1,1 C 17,7 km/h (3 Bft)
13.01.2023 05:20 4,6 C 3,9 C 89 % 1008,9 hPa 0,0 l/m 12,9 km/h (3 Bft) S-SW 202 0 min 0,0 UV-I 0 W/m 2,9 C -0,2 C 16,1 km/h (3 Bft)
13.01.2023 05:21 4,6 C 3,9 C 89 % 1008,9 hPa 0,0 l/m 11,3 km/h (2 Bft) SW 225 0 min 0,0 UV-I 0 W/m 2,9 C 0,7 C 16,1 km/h (3 Bft)
13.01.2023 05:22 4,6 C 3,9 C 89 % 1008,8 hPa 0,0 l/m 14,5 km/h (3 Bft) S 180 0 min 0,0 UV-I 0 W/m 2,9 C -1,1 C 20,9 km/h (4 Bft)
13.01.2023 05:23 4,6 C 3,9 C 89 % 1008,9 hPa 0,0 l/m 14,5 km/h (3 Bft) S-SW 202 0 min 0,0 UV-I 0 W/m 2,9 C -1,1 C 16,1 km/h (3 Bft)
13.01.2023 05:24 4,6 C 3,9 C 89 % 1008,8 hPa 0,0 l/m 16,1 km/h (3 Bft) S-SW 202 0 min 0,0 UV-I 0 W/m 2,9 C -2,0 C 19,3 km/h (3 Bft)
13.01.2023 05:25 4,6 C 3,9 C 89 % 1009,0 hPa 0,0 l/m 16,1 km/h (3 Bft) S-SW 202 0 min 0,0 UV-I 0 W/m 2,9 C -2,0 C 19,3 km/h (3 Bft)
13.01.2023 05:26 4,6 C 3,9 C 89 % 1009,0 hPa 0,0 l/m 16,1 km/h (3 Bft) S-SW 202 0 min 0,0 UV-I 0 W/m 2,9 C -2,0 C 19,3 km/h (3 Bft)
13.01.2023 05:27 4,6 C 3,9 C 89 % 1009,0 hPa 0,0 l/m 14,5 km/h (3 Bft) S-SW 202 0 min 0,0 UV-I 0 W/m 2,9 C -1,1 C 24,1 km/h (4 Bft)
13.01.2023 05:28 4,6 C 3,9 C 89 % 1009,0 hPa 0,0 l/m 16,1 km/h (3 Bft) S-SW 202 0 min 0,0 UV-I 0 W/m 2,9 C -2,0 C 19,3 km/h (3 Bft)
13.01.2023 05:29 4,6 C 3,9 C 89 % 1009,0 hPa 0,0 l/m 14,5 km/h (3 Bft) S-SW 202 0 min 0,0 UV-I 0 W/m 2,9 C -1,1 C 17,7 km/h (3 Bft)
13.01.2023 05:30 4,6 C 3,9 C 89 % 1009,1 hPa 0,0 l/m 14,5 km/h (3 Bft) S-SW 202 0 min 0,0 UV-I 0 W/m 2,9 C -1,1 C 17,7 km/h (3 Bft)
13.01.2023 05:31 4,6 C 3,9 C 89 % 1008,9 hPa 0,0 l/m 14,5 km/h (3 Bft) S-SW 202 0 min 0,0 UV-I 0 W/m 2,9 C -1,1 C 17,7 km/h (3 Bft)
13.01.2023 05:32 4,6 C 3,9 C 89 % 1009,0 hPa 0,0 l/m 14,5 km/h (3 Bft) S-SW 202 0 min 0,0 UV-I 0 W/m 2,9 C -1,1 C 17,7 km/h (3 Bft)
13.01.2023 05:33 4,6 C 3,9 C 89 % 1008,9 hPa 0,0 l/m 12,9 km/h (3 Bft) S-SW 202 0 min 0,0 UV-I 0 W/m 2,9 C -0,2 C 17,7 km/h (3 Bft)
13.01.2023 05:34 4,6 C 3,9 C 90 % 1008,9 hPa 0,0 l/m 14,5 km/h (3 Bft) S-SW 202 0 min 0,0 UV-I 0 W/m 3,1 C -1,1 C 17,7 km/h (3 Bft)
13.01.2023 05:35 4,6 C 3,9 C 90 % 1009,0 hPa 0,0 l/m 14,5 km/h (3 Bft) S-SW 202 0 min 0,0 UV-I 0 W/m 3,1 C -1,1 C 19,3 km/h (3 Bft)
13.01.2023 05:36 4,5 C 3,9 C 90 % 1008,8 hPa 0,0 l/m 12,9 km/h (3 Bft) S 180 0 min 0,0 UV-I 0 W/m 3,0 C -0,4 C 19,3 km/h (3 Bft)
13.01.2023 05:37 4,5 C 3,3 C 89 % 1008,9 hPa 0,0 l/m 14,5 km/h (3 Bft) S 180 0 min 0,0 UV-I 0 W/m 2,8 C -1,3 C 19,3 km/h (3 Bft)
13.01.2023 05:38 4,5 C 3,3 C 90 % 1008,9 hPa 0,0 l/m 16,1 km/h (3 Bft) S 180 0 min 0,0 UV-I 0 W/m 3,0 C -2,1 C 24,1 km/h (4 Bft)
13.01.2023 05:39 4,5 C 3,3 C 89 % 1008,9 hPa 0,0 l/m 16,1 km/h (3 Bft) S-SW 202 0 min 0,0 UV-I 0 W/m 2,8 C -2,1 C 19,3 km/h (3 Bft)
13.01.2023 05:40 4,5 C 3,3 C 89 % 1008,9 hPa 0,0 l/m 17,7 km/h (3 Bft) S-SW 202 0 min 0,0 UV-I 0 W/m 2,8 C -2,8 C 22,5 km/h (4 Bft)
13.01.2023 05:41 4,5 C 3,3 C 89 % 1008,9 hPa 0,0 l/m 16,1 km/h (3 Bft) S-SW 202 0 min 0,0 UV-I 0 W/m 2,8 C -2,1 C 25,7 km/h (4 Bft)
13.01.2023 05:42 4,4 C 3,3 C 89 % 1009,0 hPa 0,0 l/m 16,1 km/h (3 Bft) S 180 0 min 0,0 UV-I 0 W/m 2,7 C -2,2 C 24,1 km/h (4 Bft)
13.01.2023 05:43 4,5 C 3,3 C 89 % 1008,9 hPa 0,0 l/m 17,7 km/h (3 Bft) S-SW 202 0 min 0,0 UV-I 0 W/m 2,8 C -2,8 C 22,5 km/h (4 Bft)
13.01.2023 05:44 4,4 C 3,3 C 89 % 1008,9 hPa 0,0 l/m 20,9 km/h (4 Bft) S-SW 202 0 min 0,0 UV-I 0 W/m 2,7 C -4,3 C 24,1 km/h (4 Bft)
13.01.2023 05:45 4,4 C 3,3 C 89 % 1008,8 hPa 0,0 l/m 19,3 km/h (3 Bft) S-SW 202 0 min 0,0 UV-I 0 W/m 2,7 C -3,7 C 24,1 km/h (4 Bft)
13.01.2023 05:46 4,4 C 3,3 C 89 % 1008,8 hPa 0,0 l/m 14,5 km/h (3 Bft) S 180 0 min 0,0 UV-I 0 W/m 2,7 C -1,4 C 22,5 km/h (4 Bft)
13.01.2023 05:47 4,4 C 3,3 C 89 % 1008,7 hPa 0,0 l/m 16,1 km/h (3 Bft) S-SW 202 0 min 0,0 UV-I 0 W/m 2,7 C -2,2 C 22,5 km/h (4 Bft)
13.01.2023 05:48 4,4 C 3,3 C 89 % 1008,7 hPa 0,0 l/m 12,9 km/h (3 Bft) S-SW 202 0 min 0,0 UV-I 0 W/m 2,7 C -0,5 C 14,5 km/h (3 Bft)
13.01.2023 05:49 4,4 C 3,3 C 89 % 1008,7 hPa 0,0 l/m 14,5 km/h (3 Bft) S 180 0 min 0,0 UV-I 0 W/m 2,7 C -1,4 C 22,5 km/h (4 Bft)
13.01.2023 05:50 4,3 C 3,3 C 89 % 1008,6 hPa 0,0 l/m 16,1 km/h (3 Bft) S-SW 202 0 min 0,0 UV-I 0 W/m 2,7 C -2,3 C 20,9 km/h (4 Bft)
13.01.2023 05:51 4,4 C 3,3 C 89 % 1008,7 hPa 0,0 l/m 14,5 km/h (3 Bft) S-SW 202 0 min 0,0 UV-I 0 W/m 2,7 C -1,4 C 20,9 km/h (4 Bft)
13.01.2023 05:52 4,3 C 3,3 C 89 % 1008,7 hPa 0,0 l/m 16,1 km/h (3 Bft) S-SW 202 0 min 0,0 UV-I 0 W/m 2,7 C -2,3 C 22,5 km/h (4 Bft)
13.01.2023 05:53 4,3 C 3,3 C 89 % 1008,7 hPa 0,0 l/m 17,7 km/h (3 Bft) S-SW 202 0 min 0,0 UV-I 0 W/m 2,7 C -3,1 C 25,7 km/h (4 Bft)
13.01.2023 05:54 4,3 C 3,3 C 89 % 1008,7 hPa 0,0 l/m 12,9 km/h (3 Bft) S-SW 202 0 min 0,0 UV-I 0 W/m 2,7 C -0,6 C 16,1 km/h (3 Bft)
13.01.2023 05:55 4,3 C 3,3 C 89 % 1008,7 hPa 0,0 l/m 16,1 km/h (3 Bft) S-SW 202 0 min 0,0 UV-I 0 W/m 2,7 C -2,3 C 22,5 km/h (4 Bft)
13.01.2023 05:56 4,3 C 3,3 C 89 % 1008,7 hPa 0,0 l/m 14,5 km/h (3 Bft) S-SW 202 0 min 0,0 UV-I 0 W/m 2,7 C -1,5 C 19,3 km/h (3 Bft)
13.01.2023 05:57 4,3 C 3,3 C 89 % 1008,7 hPa 0,0 l/m 14,5 km/h (3 Bft) S-SW 202 0 min 0,0 UV-I 0 W/m 2,7 C -1,5 C 17,7 km/h (3 Bft)
13.01.2023 05:58 4,2 C 2,8 C 89 % 1008,8 hPa 0,0 l/m 17,7 km/h (3 Bft) S-SW 202 0 min 0,0 UV-I 0 W/m 2,6 C -3,2 C 25,7 km/h (4 Bft)
13.01.2023 05:59 4,2 C 2,8 C 89 % 1008,8 hPa 0,0 l/m 16,1 km/h (3 Bft) S-SW 202 0 min 0,0 UV-I 0 W/m 2,6 C -2,5 C 24,1 km/h (4 Bft)
13.01.2023 06:00 4,2 C 2,8 C 89 % 1009,0 hPa 0,0 l/m 19,3 km/h (3 Bft) S-SW 202 0 min 0,0 UV-I 0 W/m 2,6 C -3,9 C 24,1 km/h (4 Bft)
13.01.2023 06:01 4,2 C 2,8 C 90 % 1008,8 hPa 0,0 l/m 16,1 km/h (3 Bft) S 180 0 min 0,0 UV-I 0 W/m 2,7 C -2,5 C 22,5 km/h (4 Bft)
13.01.2023 06:02 4,2 C 2,8 C 89 % 1008,9 hPa 0,0 l/m 17,7 km/h (3 Bft) S-SW 202 0 min 0,0 UV-I 0 W/m 2,6 C -3,2 C 27,4 km/h (4 Bft)
13.01.2023 06:03 4,2 C 3,3 C 90 % 1009,0 hPa 0,0 l/m 16,1 km/h (3 Bft) S-SW 202 0 min 0,0 UV-I 0 W/m 2,7 C -2,5 C 22,5 km/h (4 Bft)
13.01.2023 06:04 4,2 C 3,3 C 90 % 1009,0 hPa 0,0 l/m 19,3 km/h (3 Bft) S-SW 202 0 min 0,0 UV-I 0 W/m 2,7 C -3,9 C 24,1 km/h (4 Bft)
13.01.2023 06:05 4,1 C 3,3 C 90 % 1009,0 hPa 0,0 l/m 14,5 km/h (3 Bft) S-SW 202 0 min 0,0 UV-I 0 W/m 2,6 C -1,7 C 22,5 km/h (4 Bft)
13.01.2023 06:06 4,2 C 3,3 C 90 % 1008,8 hPa 0,0 l/m 14,5 km/h (3 Bft) S-SW 202 0 min 0,0 UV-I 0 W/m 2,7 C -1,6 C 22,5 km/h (4 Bft)
13.01.2023 06:07 4,2 C 3,3 C 90 % 1008,9 hPa 0,0 l/m 12,9 km/h (3 Bft) S-SW 202 0 min 0,0 UV-I 0 W/m 2,7 C -0,7 C 17,7 km/h (3 Bft)
13.01.2023 06:08 4,2 C 3,3 C 90 % 1008,9 hPa 0,0 l/m 14,5 km/h (3 Bft) S-SW 202 0 min 0,0 UV-I 0 W/m 2,7 C -1,6 C 20,9 km/h (4 Bft)
13.01.2023 06:09 4,2 C 3,3 C 90 % 1009,0 hPa 0,0 l/m 17,7 km/h (3 Bft) S-SW 202 0 min 0,0 UV-I 0 W/m 2,7 C -3,2 C 24,1 km/h (4 Bft)
13.01.2023 06:10 4,2 C 3,3 C 90 % 1008,9 hPa 0,0 l/m 14,5 km/h (3 Bft) SW 225 0 min 0,0 UV-I 0 W/m 2,7 C -1,6 C 24,1 km/h (4 Bft)
13.01.2023 06:11 4,2 C 3,3 C 90 % 1009,0 hPa 0,0 l/m 17,7 km/h (3 Bft) SW 225 0 min 0,0 UV-I 0 W/m 2,7 C -3,2 C 24,1 km/h (4 Bft)
13.01.2023 06:12 4,2 C 3,3 C 90 % 1009,0 hPa 0,0 l/m 19,3 km/h (3 Bft) S-SW 202 0 min 0,0 UV-I 0 W/m 2,7 C -3,9 C 24,1 km/h (4 Bft)
13.01.2023 06:13 4,2 C 3,3 C 90 % 1009,0 hPa 0,0 l/m 19,3 km/h (3 Bft) S-SW 202 0 min 0,0 UV-I 0 W/m 2,7 C -3,9 C 29,0 km/h (5 Bft)
13.01.2023 06:14 4,2 C 3,9 C 90 % 1009,0 hPa 0,0 l/m 19,3 km/h (3 Bft) S-SW 202 0 min 0,0 UV-I 0 W/m 2,7 C -3,9 C 27,4 km/h (4 Bft)
13.01.2023 06:15 4,3 C 3,9 C 90 % 1009,0 hPa 0,0 l/m 16,1 km/h (3 Bft) S-SW 202 0 min 0,0 UV-I 0 W/m 2,8 C -2,3 C 20,9 km/h (4 Bft)
13.01.2023 06:16 4,3 C 3,9 C 90 % 1008,8 hPa 0,0 l/m 19,3 km/h (3 Bft) S-SW 202 0 min 0,0 UV-I 0 W/m 2,8 C -3,8 C 24,1 km/h (4 Bft)
13.01.2023 06:17 4,3 C 3,9 C 90 % 1008,9 hPa 0,0 l/m 19,3 km/h (3 Bft) S-SW 202 0 min 0,0 UV-I 0 W/m 2,8 C -3,8 C 25,7 km/h (4 Bft)
13.01.2023 06:18 4,3 C 3,3 C 90 % 1008,9 hPa 0,0 l/m 17,7 km/h (3 Bft) SW 225 0 min 0,0 UV-I 0 W/m 2,8 C -3,1 C 24,1 km/h (4 Bft)
13.01.2023 06:19 4,3 C 3,3 C 90 % 1008,9 hPa 0,0 l/m 16,1 km/h (3 Bft) S-SW 202 0 min 0,0 UV-I 0 W/m 2,8 C -2,3 C 24,1 km/h (4 Bft)
13.01.2023 06:20 4,3 C 3,3 C 90 % 1008,9 hPa 0,0 l/m 19,3 km/h (3 Bft) S-SW 202 0 min 0,0 UV-I 0 W/m 2,8 C -3,8 C 30,6 km/h (5 Bft)
13.01.2023 06:21 4,3 C 3,3 C 90 % 1008,9 hPa 0,0 l/m 19,3 km/h (3 Bft) S-SW 202 0 min 0,0 UV-I 0 W/m 2,8 C -3,8 C 22,5 km/h (4 Bft)
13.01.2023 06:22 4,3 C 3,3 C 90 % 1008,8 hPa 0,0 l/m 19,3 km/h (3 Bft) S-SW 202 0 min 0,0 UV-I 0 W/m 2,8 C -3,8 C 24,1 km/h (4 Bft)
13.01.2023 06:23 4,3 C 3,3 C 90 % 1008,8 hPa 0,0 l/m 19,3 km/h (3 Bft) S-SW 202 0 min 0,0 UV-I 0 W/m 2,8 C -3,8 C 27,4 km/h (4 Bft)
13.01.2023 06:24 4,3 C 3,3 C 90 % 1008,7 hPa 0,0 l/m 19,3 km/h (3 Bft) S-SW 202 0 min 0,0 UV-I 0 W/m 2,8 C -3,8 C 24,1 km/h (4 Bft)
13.01.2023 06:25 4,3 C 3,3 C 90 % 1008,8 hPa 0,0 l/m 17,7 km/h (3 Bft) S-SW 202 0 min 0,0 UV-I 0 W/m 2,8 C -3,1 C 22,5 km/h (4 Bft)
13.01.2023 06:26 4,3 C 3,3 C 90 % 1008,8 hPa 0,0 l/m 17,7 km/h (3 Bft) S-SW 202 0 min 0,0 UV-I 0 W/m 2,8 C -3,1 C 22,5 km/h (4 Bft)
13.01.2023 06:27 4,3 C 3,3 C 90 % 1008,8 hPa 0,0 l/m 19,3 km/h (3 Bft) S-SW 202 0 min 0,0 UV-I 0 W/m 2,8 C -3,8 C 33,8 km/h (5 Bft)
13.01.2023 06:28 4,3 C 3,3 C 90 % 1008,7 hPa 0,0 l/m 17,7 km/h (3 Bft) S 180 0 min 0,0 UV-I 0 W/m 2,8 C -3,1 C 22,5 km/h (4 Bft)
13.01.2023 06:29 4,3 C 3,3 C 90 % 1008,7 hPa 0,0 l/m 17,7 km/h (3 Bft) S-SW 202 0 min 0,0 UV-I 0 W/m 2,8 C -3,1 C 25,7 km/h (4 Bft)
13.01.2023 06:30 4,3 C 3,3 C 90 % 1008,8 hPa 0,0 l/m 19,3 km/h (3 Bft) S-SW 202 0 min 0,0 UV-I 0 W/m 2,8 C -3,8 C 22,5 km/h (4 Bft)
13.01.2023 06:31 4,3 C 3,3 C 90 % 1008,8 hPa 0,0 l/m 19,3 km/h (3 Bft) S-SW 202 0 min 0,0 UV-I 0 W/m 2,8 C -3,8 C 32,2 km/h (5 Bft)
13.01.2023 06:32 4,3 C 3,3 C 90 % 1008,8 hPa 0,0 l/m 20,9 km/h (4 Bft) S-SW 202 0 min 0,0 UV-I 0 W/m 2,8 C -4,4 C 29,0 km/h (5 Bft)
13.01.2023 06:33 4,3 C 3,3 C 90 % 1008,8 hPa 0,0 l/m 16,1 km/h (3 Bft) S-SW 202 0 min 0,0 UV-I 0 W/m 2,8 C -2,3 C 27,4 km/h (4 Bft)
13.01.2023 06:34 4,3 C 3,3 C 90 % 1008,8 hPa 0,0 l/m 17,7 km/h (3 Bft) S-SW 202 0 min 0,0 UV-I 0 W/m 2,8 C -3,1 C 25,7 km/h (4 Bft)
13.01.2023 06:35 4,3 C 3,3 C 90 % 1008,8 hPa 0,0 l/m 20,9 km/h (4 Bft) S-SW 202 0 min 0,0 UV-I 0 W/m 2,8 C -4,4 C 29,0 km/h (5 Bft)
13.01.2023 06:36 4,3 C 3,9 C 90 % 1008,8 hPa 0,0 l/m 17,7 km/h (3 Bft) S 180 0 min 0,0 UV-I 0 W/m 2,8 C -3,1 C 22,5 km/h (4 Bft)
13.01.2023 06:37 4,3 C 3,9 C 90 % 1008,8 hPa 0,0 l/m 20,9 km/h (4 Bft) S-SW 202 0 min 0,0 UV-I 0 W/m 2,8 C -4,4 C 29,0 km/h (5 Bft)
13.01.2023 06:38 4,3 C 3,9 C 90 % 1008,7 hPa 0,0 l/m 22,5 km/h (4 Bft) S-SW 202 0 min 0,0 UV-I 0 W/m 2,8 C -5,0 C 32,2 km/h (5 Bft)
13.01.2023 06:39 4,3 C 3,9 C 90 % 1008,8 hPa 0,0 l/m 24,1 km/h (4 Bft) S-SW 202 0 min 0,0 UV-I 0 W/m 2,8 C -5,6 C 32,2 km/h (5 Bft)
13.01.2023 06:40 4,4 C 3,9 C 90 % 1008,8 hPa 0,0 l/m 22,5 km/h (4 Bft) S-SW 202 0 min 0,0 UV-I 0 W/m 2,9 C -4,9 C 27,4 km/h (4 Bft)
13.01.2023 06:41 4,4 C 3,9 C 90 % 1008,8 hPa 0,0 l/m 17,7 km/h (3 Bft) S-SW 202 0 min 0,0 UV-I 0 W/m 2,9 C -3,0 C 29,0 km/h (5 Bft)
13.01.2023 06:42 4,4 C 3,9 C 89 % 1008,8 hPa 0,0 l/m 22,5 km/h (4 Bft) S-SW 202 0 min 0,0 UV-I 0 W/m 2,7 C -4,9 C 29,0 km/h (5 Bft)
13.01.2023 06:43 4,4 C 3,9 C 89 % 1008,8 hPa 0,0 l/m 16,1 km/h (3 Bft) S 180 0 min 0,0 UV-I 0 W/m 2,7 C -2,2 C 25,7 km/h (4 Bft)
13.01.2023 06:45 4,4 C 3,9 C 89 % 1008,8 hPa 0,0 l/m 13,8 km/h (3 Bft) S-SW 197 0 min 0,0 UV-I 0 W/m 2,7 C -1,0 C 20,9 km/h (4 Bft)
13.01.2023 06:48 4,5 C 3,9 C 89 % 1008,8 hPa 0,0 l/m 19,1 km/h (3 Bft) S-SW 193 0 min 0,0 UV-I 0 W/m 2,8 C -3,4 C 29,0 km/h (5 Bft)
13.01.2023 06:51 4,6 C 3,9 C 89 % 1008,8 hPa 0,0 l/m 20,9 km/h (4 Bft) SW 223 0 min 0,0 UV-I 0 W/m 2,9 C -4,0 C 32,2 km/h (5 Bft)
13.01.2023 06:54 4,5 C 3,9 C 89 % 1008,9 hPa 0,0 l/m 18,1 km/h (3 Bft) SW 225 0 min 0,0 UV-I 0 W/m 2,8 C -3,0 C 30,6 km/h (5 Bft)
13.01.2023 06:57 4,6 C 3,9 C 89 % 1008,8 hPa 0,0 l/m 18,3 km/h (3 Bft) S-SW 201 0 min 0,0 UV-I 0 W/m 2,9 C -3,0 C 27,4 km/h (4 Bft)
13.01.2023 07:00 4,6 C 3,9 C 90 % 1008,8 hPa 0,0 l/m 17,5 km/h (3 Bft) S-SW 208 0 min 0,0 UV-I 0 W/m 3,1 C -2,6 C 25,7 km/h (4 Bft)
13.01.2023 07:01 4,5 C 3,9 C 89 % 1008,8 hPa 0,0 l/m 17,7 km/h (3 Bft) S-SW 202 0 min 0,0 UV-I 0 W/m 2,8 C -2,8 C 24,1 km/h (4 Bft)
13.01.2023 07:03 4,6 C 3,9 C 90 % 1008,8 hPa 0,0 l/m 21,6 km/h (4 Bft) S-SW 205 0 min 0,0 UV-I 0 W/m 3,1 C -4,3 C 30,6 km/h (5 Bft)
13.01.2023 07:06 4,6 C 3,9 C 90 % 1008,8 hPa 0,0 l/m 19,3 km/h (3 Bft) S-SW 198 0 min 0,0 UV-I 0 W/m 3,1 C -3,4 C 27,4 km/h (4 Bft)
13.01.2023 07:09 4,6 C 3,9 C 90 % 1008,8 hPa 0,0 l/m 21,1 km/h (4 Bft) S-SW 205 0 min 0,0 UV-I 0 W/m 3,1 C -4,1 C 30,6 km/h (5 Bft)
13.01.2023 07:12 4,6 C 3,9 C 90 % 1008,8 hPa 0,0 l/m 23,4 km/h (4 Bft) S-SW 213 0 min 0,0 UV-I 0 W/m 3,1 C -5,0 C 33,8 km/h (5 Bft)
13.01.2023 07:15 4,6 C 3,9 C 90 % 1008,8 hPa 0,0 l/m 18,4 km/h (3 Bft) W-SW 244 0 min 0,0 UV-I 0 W/m 3,1 C -3,0 C 27,4 km/h (4 Bft)
13.01.2023 07:18 4,6 C 3,9 C 90 % 1008,8 hPa 0,0 l/m 19,2 km/h (3 Bft) SW 219 0 min 0,0 UV-I 0 W/m 3,1 C -3,4 C 25,7 km/h (4 Bft)
13.01.2023 07:21 4,6 C 3,9 C 90 % 1009,0 hPa 0,0 l/m 16,0 km/h (3 Bft) S-SW 199 0 min 0,0 UV-I 0 W/m 3,1 C -1,9 C 27,4 km/h (4 Bft)
13.01.2023 07:24 4,5 C 3,9 C 90 % 1008,9 hPa 0,0 l/m 18,4 km/h (3 Bft) S 180 0 min 0,0 UV-I 0 W/m 3,0 C -3,1 C 30,6 km/h (5 Bft)
13.01.2023 07:27 4,6 C 3,9 C 90 % 1008,8 hPa 0,0 l/m 22,0 km/h (4 Bft) S-SW 207 0 min 0,0 UV-I 0 W/m 3,1 C -4,5 C 33,8 km/h (5 Bft)
13.01.2023 07:30 4,6 C 3,9 C 90 % 1008,9 hPa 0,0 l/m 19,4 km/h (3 Bft) S-SW 202 0 min 0,0 UV-I 0 W/m 3,1 C -3,4 C 30,6 km/h (5 Bft)
13.01.2023 07:33 4,6 C 3,9 C 90 % 1008,9 hPa 0,0 l/m 20,3 km/h (4 Bft) S-SW 204 0 min 0,0 UV-I 0 W/m 3,1 C -3,8 C 30,6 km/h (5 Bft)
13.01.2023 07:36 4,6 C 3,9 C 90 % 1009,1 hPa 0,0 l/m 19,0 km/h (3 Bft) W 270 0 min 0,0 UV-I 0 W/m 3,1 C -3,3 C 30,6 km/h (5 Bft)
13.01.2023 07:39 4,6 C 3,9 C 90 % 1009,1 hPa 0,0 l/m 19,4 km/h (3 Bft) S-SW 203 0 min 0,0 UV-I 0 W/m 3,1 C -3,4 C 29,0 km/h (5 Bft)
13.01.2023 07:42 4,6 C 3,9 C 90 % 1009,0 hPa 0,0 l/m 18,5 km/h (3 Bft) S-SW 211 0 min 0,0 UV-I 0 W/m 3,1 C -3,1 C 30,6 km/h (5 Bft)
13.01.2023 07:45 4,6 C 3,9 C 90 % 1009,2 hPa 0,0 l/m 22,8 km/h (4 Bft) S-SW 198 0 min 0,0 UV-I 0 W/m 3,1 C -4,7 C 32,2 km/h (5 Bft)
13.01.2023 07:48 4,7 C 3,9 C 90 % 1009,2 hPa 0,0 l/m 20,5 km/h (4 Bft) W-SW 237 0 min 0,0 UV-I 0 W/m 3,2 C -3,8 C 32,2 km/h (5 Bft)
13.01.2023 07:51 4,7 C 3,9 C 90 % 1009,2 hPa 0,0 l/m 19,8 km/h (3 Bft) S-SW 209 0 min 0,0 UV-I 0 W/m 3,2 C -3,5 C 38,6 km/h (5 Bft)
13.01.2023 07:54 4,7 C 3,9 C 90 % 1009,2 hPa 0,0 l/m 20,6 km/h (4 Bft) S-SW 206 0 min 0,0 UV-I 0 W/m 3,2 C -3,8 C 33,8 km/h (5 Bft)
13.01.2023 07:57 4,7 C 3,9 C 90 % 1009,2 hPa 0,0 l/m 25,8 km/h (4 Bft) SW 215 0 min 0,0 UV-I 0 W/m 3,2 C -5,6 C 37,0 km/h (5 Bft)
13.01.2023 08:00 4,7 C 3,9 C 90 % 1009,3 hPa 0,0 l/m 22,1 km/h (4 Bft) S-SW 205 0 min 0,0 UV-I 0 W/m 3,2 C -4,4 C 35,4 km/h (5 Bft)
13.01.2023 08:03 4,7 C 3,9 C 89 % 1009,2 hPa 0,0 l/m 23,1 km/h (4 Bft) SW 215 0 min 0,0 UV-I 0 W/m 3,0 C -4,7 C 40,2 km/h (6 Bft)
13.01.2023 08:06 4,8 C 3,9 C 89 % 1009,4 hPa 0,0 l/m 18,2 km/h (3 Bft) S 190 0 min 0,0 UV-I 0 W/m 3,1 C -2,7 C 27,4 km/h (4 Bft)
13.01.2023 08:09 4,8 C 3,9 C 89 % 1009,3 hPa 0,0 l/m 23,0 km/h (4 Bft) S-SW 207 0 min 0,0 UV-I 0 W/m 3,1 C -4,5 C 40,2 km/h (6 Bft)
13.01.2023 08:12 4,8 C 3,9 C 88 % 1009,4 hPa 0,0 l/m 25,7 km/h (4 Bft) S-SW 200 0 min 0,0 UV-I 0 W/m 3,0 C -5,4 C 35,4 km/h (5 Bft)
13.01.2023 08:15 4,8 C 3,9 C 88 % 1009,3 hPa 0,0 l/m 24,9 km/h (4 Bft) S-SW 204 0 min 0,0 UV-I 0 W/m 3,0 C -5,2 C 35,4 km/h (5 Bft)
13.01.2023 08:18 4,8 C 3,9 C 87 % 1009,5 hPa 0,0 l/m 24,3 km/h (4 Bft) S 186 0 min 0,0 UV-I 0 W/m 2,8 C -5,0 C 40,2 km/h (6 Bft)
13.01.2023 08:21 4,8 C 3,9 C 87 % 1009,6 hPa 0,0 l/m 21,3 km/h (4 Bft) S-SW 204 0 min 0,0 UV-I 0 W/m 2,8 C -3,9 C 33,8 km/h (5 Bft)
13.01.2023 08:24 4,8 C 3,9 C 87 % 1009,6 hPa 0,0 l/m 22,0 km/h (4 Bft) SW 229 0 min 0,0 UV-I 0 W/m 2,8 C -4,2 C 33,8 km/h (5 Bft)
13.01.2023 08:27 4,8 C 3,9 C 87 % 1009,8 hPa 0,0 l/m 23,1 km/h (4 Bft) S 179 0 min 0,0 UV-I 0 W/m 2,8 C -4,6 C 45,1 km/h (6 Bft)
13.01.2023 08:30 4,8 C 3,9 C 86 % 1009,7 hPa 0,0 l/m 20,0 km/h (4 Bft) S-SW 200 0 min 0,0 UV-I 0 W/m 2,7 C -3,4 C 30,6 km/h (5 Bft)
13.01.2023 08:33 4,8 C 3,9 C 86 % 1009,8 hPa 0,0 l/m 17,8 km/h (3 Bft) SW 229 0 min 0,0 UV-I 0 W/m 2,7 C -2,5 C 32,2 km/h (5 Bft)
13.01.2023 08:36 4,8 C 3,9 C 86 % 1009,8 hPa 0,0 l/m 16,7 km/h (3 Bft) S 188 0 min 0,0 UV-I 0 W/m 2,7 C -2,0 C 35,4 km/h (5 Bft)
13.01.2023 08:39 4,7 C 3,9 C 86 % 1009,8 hPa 0,0 l/m 24,0 km/h (4 Bft) SW 215 0 min 0,0 UV-I 0 W/m 2,6 C -5,0 C 38,6 km/h (5 Bft)
13.01.2023 08:42 4,7 C 3,9 C 86 % 1009,9 hPa 0,0 l/m 19,2 km/h (3 Bft) SW 218 0 min 0,0 UV-I 4 W/m 2,6 C -3,2 C 32,2 km/h (5 Bft)
13.01.2023 08:45 4,7 C 3,9 C 86 % 1009,9 hPa 0,0 l/m 18,2 km/h (3 Bft) S-SW 205 0 min 0,0 UV-I 6 W/m 2,6 C -2,8 C 29,0 km/h (5 Bft)
13.01.2023 08:48 4,7 C 3,9 C 86 % 1010,0 hPa 0,0 l/m 18,7 km/h (3 Bft) S-SW 213 0 min 0,0 UV-I 8 W/m 2,6 C -3,0 C 37,0 km/h (5 Bft)
13.01.2023 08:51 4,7 C 3,9 C 86 % 1009,9 hPa 0,0 l/m 19,7 km/h (3 Bft) S-SW 200 0 min 0,0 UV-I 7 W/m 2,6 C -3,4 C 33,8 km/h (5 Bft)
13.01.2023 08:54 4,6 C 3,9 C 86 % 1010,0 hPa 0,0 l/m 18,5 km/h (3 Bft) S-SW 211 0 min 0,0 UV-I 9 W/m 2,5 C -3,1 C 29,0 km/h (5 Bft)
13.01.2023 08:57 4,6 C 3,9 C 86 % 1010,1 hPa 0,0 l/m 20,7 km/h (4 Bft) SW 215 0 min 0,0 UV-I 13 W/m 2,5 C -4,0 C 35,4 km/h (5 Bft)
13.01.2023 09:00 4,6 C 3,9 C 86 % 1010,0 hPa 0,0 l/m 18,9 km/h (3 Bft) SW 224 0 min 0,0 UV-I 18 W/m 2,5 C -3,2 C 35,4 km/h (5 Bft)
13.01.2023 09:03 4,6 C 3,9 C 86 % 1010,1 hPa 0,0 l/m 22,7 km/h (4 Bft) S 179 0 min 0,0 UV-I 22 W/m 2,5 C -4,7 C 33,8 km/h (5 Bft)
13.01.2023 09:06 4,7 C 3,9 C 86 % 1010,1 hPa 0,0 l/m 24,1 km/h (4 Bft) SW 216 0 min 0,0 UV-I 18 W/m 2,6 C -5,1 C 38,6 km/h (5 Bft)
13.01.2023 09:09 4,7 C 3,9 C 86 % 1010,1 hPa 0,0 l/m 16,2 km/h (3 Bft) SW 232 0 min 0,0 UV-I 24 W/m 2,6 C -1,9 C 27,4 km/h (4 Bft)
13.01.2023 09:12 4,7 C 4,4 C 86 % 1010,1 hPa 0,0 l/m 18,5 km/h (3 Bft) S-SW 213 0 min 0,0 UV-I 33 W/m 2,6 C -2,9 C 29,0 km/h (5 Bft)
13.01.2023 09:15 4,6 C 4,4 C 86 % 1010,1 hPa 0,0 l/m 19,1 km/h (3 Bft) S-SW 200 0 min 0,0 UV-I 19 W/m 2,5 C -3,3 C 32,2 km/h (5 Bft)
13.01.2023 09:18 4,7 C 4,4 C 86 % 1010,3 hPa 0,0 l/m 17,7 km/h (3 Bft) SW 219 0 min 0,0 UV-I 24 W/m 2,6 C -2,6 C 25,7 km/h (4 Bft)
13.01.2023 09:21 4,6 C 4,4 C 86 % 1010,2 hPa 0,0 l/m 16,4 km/h (3 Bft) S-SW 192 0 min 0,0 UV-I 31 W/m 2,5 C -2,1 C 27,4 km/h (4 Bft)
13.01.2023 09:24 4,7 C 3,9 C 86 % 1010,3 hPa 0,0 l/m 18,0 km/h (3 Bft) S-SW 207 0 min 0,0 UV-I 32 W/m 2,6 C -2,7 C 25,7 km/h (4 Bft)
13.01.2023 09:27 4,7 C 3,9 C 86 % 1010,3 hPa 0,0 l/m 16,0 km/h (3 Bft) SW 215 0 min 0,0 UV-I 48 W/m 2,6 C -1,8 C 27,4 km/h (4 Bft)
13.01.2023 09:30 4,7 C 3,9 C 86 % 1010,5 hPa 0,0 l/m 15,3 km/h (3 Bft) S-SW 197 0 min 0,0 UV-I 35 W/m 2,6 C -1,4 C 27,4 km/h (4 Bft)
13.01.2023 09:33 4,7 C 3,9 C 86 % 1010,4 hPa 0,0 l/m 16,2 km/h (3 Bft) W 268 0 min 0,0 UV-I 33 W/m 2,6 C -1,9 C 30,6 km/h (5 Bft)
13.01.2023 09:36 4,6 C 3,9 C 87 % 1010,5 hPa 0,0 l/m 15,2 km/h (3 Bft) SW 220 0 min 0,0 UV-I 41 W/m 2,6 C -1,5 C 22,5 km/h (4 Bft)
13.01.2023 09:39 4,6 C 3,9 C 87 % 1010,6 hPa 0,0 l/m 15,0 km/h (3 Bft) S 191 0 min 0,0 UV-I 39 W/m 2,6 C -1,4 C 27,4 km/h (4 Bft)
13.01.2023 09:42 4,6 C 3,9 C 87 % 1010,6 hPa 0,0 l/m 19,9 km/h (4 Bft) SW 218 0 min 0,0 UV-I 67 W/m 2,6 C -3,6 C 37,0 km/h (5 Bft)
13.01.2023 09:45 4,7 C 3,9 C 87 % 1010,8 hPa 0,0 l/m 16,6 km/h (3 Bft) SW 227 0 min 0,0 UV-I 81 W/m 2,7 C -2,1 C 27,4 km/h (4 Bft)
13.01.2023 09:48 4,7 C 3,9 C 87 % 1011,0 hPa 0,0 l/m 15,8 km/h (3 Bft) SW 224 0 min 0,0 UV-I 63 W/m 2,7 C -1,7 C 27,4 km/h (4 Bft)
13.01.2023 09:51 4,7 C 3,9 C 87 % 1011,0 hPa 0,0 l/m 20,3 km/h (4 Bft) SW 223 0 min 0,0 UV-I 27 W/m 2,7 C -3,7 C 30,6 km/h (5 Bft)
13.01.2023 09:54 4,7 C 3,9 C 87 % 1011,1 hPa 0,0 l/m 18,3 km/h (3 Bft) S 184 0 min 0,0 UV-I 15 W/m 2,7 C -2,9 C 27,4 km/h (4 Bft)
13.01.2023 09:57 4,7 C 3,9 C 87 % 1011,1 hPa 0,0 l/m 17,1 km/h (3 Bft) S-SW 193 0 min 0,0 UV-I 18 W/m 2,7 C -2,3 C 25,7 km/h (4 Bft)
13.01.2023 10:00 4,7 C 3,9 C 87 % 1011,1 hPa 0,0 l/m 17,1 km/h (3 Bft) S-SW 196 0 min 0,0 UV-I 24 W/m 2,7 C -2,3 C 22,5 km/h (4 Bft)
13.01.2023 10:03 4,6 C 3,9 C 87 % 1011,1 hPa 0,0 l/m 16,9 km/h (3 Bft) S-SW 200 0 min 0,0 UV-I 23 W/m 2,6 C -2,3 C 27,4 km/h (4 Bft)
13.01.2023 10:06 4,6 C 3,9 C 88 % 1011,1 hPa 0,0 l/m 13,3 km/h (3 Bft) S 171 0 min 0,0 UV-I 30 W/m 2,8 C -0,5 C 24,1 km/h (4 Bft)
13.01.2023 10:09 4,6 C 3,9 C 87 % 1011,2 hPa 0,0 l/m 18,5 km/h (3 Bft) SW 214 0 min 0,0 UV-I 33 W/m 2,6 C -3,1 C 32,2 km/h (5 Bft)
13.01.2023 10:12 4,7 C 4,4 C 87 % 1011,0 hPa 0,0 l/m 18,2 km/h (3 Bft) S-SW 194 0 min 0,0 UV-I 57 W/m 2,7 C -2,8 C 38,6 km/h (5 Bft)
13.01.2023 10:15 4,7 C 4,4 C 87 % 1011,2 hPa 0,0 l/m 18,9 km/h (3 Bft) S-SW 192 0 min 0,0 UV-I 51 W/m 2,7 C -3,1 C 35,4 km/h (5 Bft)
13.01.2023 10:18 4,7 C 3,9 C 86 % 1011,1 hPa 0,0 l/m 17,7 km/h (3 Bft) S-SW 212 0 min 0,0 UV-I 36 W/m 2,6 C -2,6 C 29,0 km/h (5 Bft)
13.01.2023 10:21 4,8 C 4,4 C 86 % 1011,2 hPa 0,0 l/m 18,5 km/h (3 Bft) SW 221 0 min 0,0 UV-I 55 W/m 2,7 C -2,8 C 27,4 km/h (4 Bft)
13.01.2023 10:24 4,9 C 4,4 C 85 % 1011,0 hPa 0,0 l/m 17,4 km/h (3 Bft) S-SW 213 0 min 0,0 UV-I 67 W/m 2,6 C -2,2 C 25,7 km/h (4 Bft)
13.01.2023 10:27 4,9 C 4,4 C 85 % 1011,3 hPa 0,0 l/m 23,2 km/h (4 Bft) SW 227 0 min 0,0 UV-I 50 W/m 2,6 C -4,5 C 33,8 km/h (5 Bft)
13.01.2023 10:30 5,0 C 4,4 C 85 % 1011,3 hPa 0,0 l/m 17,5 km/h (3 Bft) SW 214 0 min 0,0 UV-I 54 W/m 2,7 C -2,1 C 35,4 km/h (5 Bft)
13.01.2023 10:33 5,0 C 4,4 C 84 % 1011,2 hPa 0,0 l/m 25,5 km/h (4 Bft) S-SW 213 0 min 0,0 UV-I 59 W/m 2,5 C -5,1 C 40,2 km/h (6 Bft)
13.01.2023 10:36 5,1 C 4,4 C 84 % 1011,2 hPa 0,0 l/m 20,4 km/h (4 Bft) S-SW 194 0 min 0,0 UV-I 84 W/m 2,6 C -3,2 C 33,8 km/h (5 Bft)
13.01.2023 10:39 5,1 C 5,0 C 84 % 1011,2 hPa 0,0 l/m 20,7 km/h (4 Bft) S-SW 200 0 min 0,0 UV-I 73 W/m 2,6 C -3,3 C 30,6 km/h (5 Bft)
13.01.2023 10:42 5,1 C 5,0 C 85 % 1011,2 hPa 0,0 l/m 17,2 km/h (3 Bft) SW 229 0 min 0,0 UV-I 77 W/m 2,8 C -1,9 C 29,0 km/h (5 Bft)
13.01.2023 10:45 5,1 C 4,4 C 85 % 1011,2 hPa 0,0 l/m 17,5 km/h (3 Bft) SW 219 0 min 0,0 UV-I 65 W/m 2,8 C -2,0 C 27,4 km/h (4 Bft)
13.01.2023 10:48 5,2 C 4,4 C 84 % 1011,2 hPa 0,0 l/m 20,1 km/h (4 Bft) S 186 0 min 0,0 UV-I 68 W/m 2,7 C -3,0 C 29,0 km/h (5 Bft)
13.01.2023 10:51 5,2 C 4,4 C 84 % 1011,2 hPa 0,0 l/m 19,4 km/h (3 Bft) S-SW 204 0 min 0,0 UV-I 64 W/m 2,7 C -2,7 C 30,6 km/h (5 Bft)
13.01.2023 10:54 5,1 C 4,4 C 84 % 1011,2 hPa 0,0 l/m 19,2 km/h (3 Bft) S-SW 196 0 min 0,0 UV-I 36 W/m 2,6 C -2,7 C 32,2 km/h (5 Bft)
13.01.2023 10:57 5,1 C 4,4 C 85 % 1011,0 hPa 0,0 l/m 18,5 km/h (3 Bft) S-SW 211 0 min 0,0 UV-I 59 W/m 2,8 C -2,4 C 27,4 km/h (4 Bft)
13.01.2023 11:00 5,1 C 4,4 C 85 % 1011,1 hPa 0,0 l/m 19,5 km/h (3 Bft) S 186 0 min 0,0 UV-I 39 W/m 2,8 C -2,8 C 33,8 km/h (5 Bft)
13.01.2023 11:03 5,1 C 4,4 C 85 % 1011,2 hPa 0,0 l/m 22,1 km/h (4 Bft) S-SW 201 0 min 0,0 UV-I 47 W/m 2,8 C -3,8 C 35,4 km/h (5 Bft)
13.01.2023 11:06 5,1 C 5,0 C 85 % 1011,3 hPa 0,0 l/m 21,6 km/h (4 Bft) S 190 0 min 0,0 UV-I 101 W/m 2,8 C -3,7 C 30,6 km/h (5 Bft)
13.01.2023 11:09 5,1 C 5,0 C 85 % 1011,2 hPa 0,0 l/m 22,3 km/h (4 Bft) S 191 0 min 0,0 UV-I 109 W/m 2,8 C -3,9 C 35,4 km/h (5 Bft)
13.01.2023 11:12 5,2 C 5,0 C 85 % 1011,3 hPa 0,0 l/m 17,3 km/h (3 Bft) S 175 0 min 0,0 UV-I 79 W/m 2,9 C -1,8 C 27,4 km/h (4 Bft)
13.01.2023 11:15 5,2 C 5,0 C 85 % 1011,3 hPa 0,0 l/m 17,9 km/h (3 Bft) S-SW 210 0 min 0,0 UV-I 58 W/m 2,9 C -2,0 C 27,4 km/h (4 Bft)
13.01.2023 11:18 5,3 C 5,0 C 84 % 1011,3 hPa 0,0 l/m 18,5 km/h (3 Bft) SW 221 0 min 0,0 UV-I 44 W/m 2,8 C -2,2 C 35,4 km/h (5 Bft)
13.01.2023 11:21 5,3 C 5,0 C 84 % 1011,4 hPa 0,0 l/m 21,9 km/h (4 Bft) W-SW 239 0 min 0,0 UV-I 72 W/m 2,8 C -3,5 C 32,2 km/h (5 Bft)
13.01.2023 11:24 5,3 C 5,0 C 84 % 1011,2 hPa 0,0 l/m 19,7 km/h (3 Bft) S 184 0 min 0,0 UV-I 57 W/m 2,8 C -2,7 C 38,6 km/h (5 Bft)
13.01.2023 11:27 5,3 C 5,0 C 83 % 1011,3 hPa 0,0 l/m 24,1 km/h (4 Bft) S 175 0 min 0,0 UV-I 64 W/m 2,7 C -4,2 C 43,5 km/h (6 Bft)
13.01.2023 11:30 5,3 C 5,0 C 83 % 1011,2 hPa 0,0 l/m 21,9 km/h (4 Bft) S-SW 205 0 min 0,0 UV-I 78 W/m 2,7 C -3,5 C 33,8 km/h (5 Bft)
13.01.2023 11:33 5,3 C 5,0 C 83 % 1011,3 hPa 0,0 l/m 23,2 km/h (4 Bft) S-SW 199 0 min 0,0 UV-I 76 W/m 2,7 C -4,0 C 33,8 km/h (5 Bft)
13.01.2023 11:36 5,3 C 5,0 C 83 % 1011,4 hPa 0,0 l/m 23,2 km/h (4 Bft) S 190 0 min 0,0 UV-I 58 W/m 2,7 C -4,0 C 33,8 km/h (5 Bft)
13.01.2023 11:39 5,3 C 5,0 C 83 % 1011,3 hPa 0,0 l/m 23,9 km/h (4 Bft) S-SW 198 0 min 0,0 UV-I 64 W/m 2,7 C -4,2 C 35,4 km/h (5 Bft)
13.01.2023 11:42 5,3 C 5,0 C 83 % 1011,2 hPa 0,0 l/m 23,8 km/h (4 Bft) S-SW 192 0 min 0,0 UV-I 57 W/m 2,7 C -4,2 C 46,7 km/h (6 Bft)
13.01.2023 11:45 5,3 C 5,0 C 83 % 1011,3 hPa 0,0 l/m 22,7 km/h (4 Bft) S-SW 195 0 min 0,0 UV-I 57 W/m 2,7 C -3,8 C 30,6 km/h (5 Bft)
13.01.2023 11:48 5,3 C 5,0 C 83 % 1011,2 hPa 0,0 l/m 23,2 km/h (4 Bft) W-SW 252 0 min 0,2 UV-I 78 W/m 2,7 C -4,0 C 32,2 km/h (5 Bft)
13.01.2023 11:51 5,3 C 5,6 C 83 % 1011,3 hPa 0,0 l/m 18,5 km/h (3 Bft) SW 215 0 min 0,5 UV-I 111 W/m 2,7 C -2,2 C 30,6 km/h (5 Bft)
13.01.2023 11:54 5,4 C 5,6 C 83 % 1011,2 hPa 0,0 l/m 18,1 km/h (3 Bft) SW 219 0 min 0,5 UV-I 129 W/m 2,7 C -1,9 C 30,6 km/h (5 Bft)
13.01.2023 11:57 5,4 C 5,6 C 83 % 1011,3 hPa 0,0 l/m 21,3 km/h (4 Bft) S-SW 200 0 min 0,2 UV-I 95 W/m 2,7 C -3,1 C 32,2 km/h (5 Bft)
13.01.2023 12:00 5,4 C 5,6 C 83 % 1011,4 hPa 0,0 l/m 17,1 km/h (3 Bft) SW 222 0 min 0,5 UV-I 91 W/m 2,7 C -1,4 C 27,4 km/h (4 Bft)
13.01.2023 12:03 5,4 C 6,1 C 83 % 1011,4 hPa 0,0 l/m 20,2 km/h (4 Bft) SW 234 0 min 0,6 UV-I 154 W/m 2,7 C -2,7 C 30,6 km/h (5 Bft)
13.01.2023 12:06 5,6 C 6,7 C 83 % 1011,3 hPa 0,0 l/m 20,1 km/h (4 Bft) S-SW 205 3 min 0,7 UV-I 254 W/m 2,9 C -2,4 C 32,2 km/h (5 Bft)
13.01.2023 12:09 5,7 C 6,1 C 82 % 1011,2 hPa 0,0 l/m 21,9 km/h (4 Bft) S-SW 202 0 min 0,3 UV-I 136 W/m 2,9 C -3,0 C 35,4 km/h (5 Bft)
13.01.2023 12:12 5,6 C 5,6 C 82 % 1011,1 hPa 0,0 l/m 22,9 km/h (4 Bft) SW 229 0 min 0,1 UV-I 101 W/m 2,8 C -3,4 C 35,4 km/h (5 Bft)
13.01.2023 12:15 5,6 C 5,6 C 82 % 1011,3 hPa 0,0 l/m 20,5 km/h (4 Bft) S-SW 212 0 min 0,0 UV-I 54 W/m 2,8 C -2,6 C 32,2 km/h (5 Bft)
13.01.2023 12:18 5,6 C 5,0 C 82 % 1011,2 hPa 0,0 l/m 20,9 km/h (4 Bft) SW 230 0 min 0,0 UV-I 27 W/m 2,8 C -2,7 C 29,0 km/h (5 Bft)
13.01.2023 12:21 5,4 C 5,0 C 83 % 1011,4 hPa 0,0 l/m 22,6 km/h (4 Bft) S-SW 213 0 min 0,0 UV-I 23 W/m 2,7 C -3,6 C 35,4 km/h (5 Bft)
13.01.2023 12:24 5,4 C 5,0 C 83 % 1011,4 hPa 0,0 l/m 20,1 km/h (4 Bft) S-SW 203 0 min 0,0 UV-I 8 W/m 2,7 C -2,7 C 30,6 km/h (5 Bft)
13.01.2023 12:27 5,4 C 4,4 C 83 % 1011,3 hPa 0,0 l/m 20,2 km/h (4 Bft) S-SW 199 0 min 0,0 UV-I 11 W/m 2,7 C -2,7 C 30,6 km/h (5 Bft)
13.01.2023 12:30 5,3 C 3,9 C 83 % 1011,8 hPa 0,0 l/m 22,4 km/h (4 Bft) SW 229 0 min 0,0 UV-I 27 W/m 2,7 C -3,7 C 48,3 km/h (6 Bft)
13.01.2023 12:33 5,1 C 3,9 C 84 % 1011,8 hPa 0,0 l/m 25,9 km/h (4 Bft) SW 225 0 min 0,0 UV-I 74 W/m 2,6 C -5,1 C 38,6 km/h (5 Bft)
13.01.2023 12:36 4,9 C 4,4 C 85 % 1011,7 hPa 0,0 l/m 18,4 km/h (3 Bft) W-SW 246 0 min 0,7 UV-I 122 W/m 2,6 C -2,6 C 30,6 km/h (5 Bft)
13.01.2023 12:39 4,9 C 3,9 C 84 % 1011,7 hPa 0,0 l/m 21,8 km/h (4 Bft) W-SW 249 0 min 0,6 UV-I 75 W/m 2,4 C -4,0 C 40,2 km/h (6 Bft)
13.01.2023 12:42 4,8 C 4,4 C 84 % 1011,7 hPa 0,0 l/m 13,9 km/h (3 Bft) S-SW 196 0 min 0,4 UV-I 78 W/m 2,3 C -0,6 C 24,1 km/h (4 Bft)
13.01.2023 12:45 4,9 C 6,7 C 85 % 1011,8 hPa 0,0 l/m 17,5 km/h (3 Bft) SW 232 0 min 1,0 UV-I 218 W/m 2,6 C -2,2 C 32,2 km/h (5 Bft)
13.01.2023 12:48 5,2 C 7,8 C 85 % 1011,6 hPa 0,0 l/m 19,0 km/h (3 Bft) SW 218 3 min 1,0 UV-I 292 W/m 2,9 C -2,5 C 37,0 km/h (5 Bft)
13.01.2023 12:51 5,3 C 7,8 C 85 % 1011,5 hPa 0,0 l/m 19,1 km/h (3 Bft) W-SW 253 3 min 1,0 UV-I 295 W/m 3,0 C -2,4 C 32,2 km/h (5 Bft)
13.01.2023 12:54 5,3 C 7,8 C 84 % 1011,4 hPa 0,0 l/m 20,6 km/h (4 Bft) S-SW 202 3 min 1,0 UV-I 303 W/m 2,8 C -3,0 C 32,2 km/h (5 Bft)
13.01.2023 12:57 5,4 C 8,3 C 85 % 1011,5 hPa 0,0 l/m 17,2 km/h (3 Bft) SW 219 3 min 1,0 UV-I 350 W/m 3,1 C -1,5 C 30,6 km/h (5 Bft)
13.01.2023 13:00 5,7 C 8,3 C 85 % 1011,4 hPa 0,0 l/m 16,8 km/h (3 Bft) W-SW 239 3 min 1,0 UV-I 382 W/m 3,4 C -0,9 C 29,0 km/h (5 Bft)
13.01.2023 13:03 5,7 C 6,7 C 84 % 1011,3 hPa 0,0 l/m 24,6 km/h (4 Bft) SW 222 0 min 0,9 UV-I 217 W/m 3,2 C -3,9 C 38,6 km/h (5 Bft)
13.01.2023 13:06 5,7 C 6,1 C 84 % 1011,3 hPa 0,0 l/m 22,6 km/h (4 Bft) S-SW 207 3 min 0,7 UV-I 257 W/m 3,2 C -3,2 C 32,2 km/h (5 Bft)
13.01.2023 13:09 5,7 C 6,1 C 84 % 1011,4 hPa 0,2 l/m 21,2 km/h (4 Bft) SW 226 3 min 0,6 UV-I 249 W/m 3,2 C -2,7 C 33,8 km/h (5 Bft)
13.01.2023 13:12 5,6 C 5,0 C 83 % 1011,4 hPa 0,0 l/m 24,9 km/h (4 Bft) S 182 0 min 0,1 UV-I 103 W/m 2,9 C -4,1 C 38,6 km/h (5 Bft)
13.01.2023 13:15 5,4 C 4,4 C 84 % 1011,5 hPa 0,0 l/m 19,3 km/h (3 Bft) SW 224 0 min 0,0 UV-I 49 W/m 2,9 C -2,4 C 35,4 km/h (5 Bft)
13.01.2023 13:18 5,2 C 4,4 C 85 % 1011,5 hPa 0,0 l/m 18,2 km/h (3 Bft) S-SW 194 0 min 0,1 UV-I 87 W/m 2,9 C -2,2 C 32,2 km/h (5 Bft)
13.01.2023 13:21 5,2 C 4,4 C 86 % 1011,6 hPa 0,0 l/m 21,8 km/h (4 Bft) W 261 0 min 0,6 UV-I 124 W/m 3,1 C -3,6 C 38,6 km/h (5 Bft)
13.01.2023 13:24 5,1 C 4,4 C 86 % 1011,5 hPa 0,0 l/m 21,1 km/h (4 Bft) S 189 0 min 0,6 UV-I 94 W/m 3,0 C -3,5 C 33,8 km/h (5 Bft)
13.01.2023 13:27 5,2 C 5,0 C 86 % 1011,5 hPa 0,0 l/m 17,8 km/h (3 Bft) SW 227 0 min 0,7 UV-I 154 W/m 3,1 C -2,0 C 30,6 km/h (5 Bft)
13.01.2023 13:30 5,2 C 5,0 C 86 % 1011,6 hPa 0,0 l/m 21,7 km/h (4 Bft) W-SW 244 0 min 0,6 UV-I 138 W/m 3,1 C -3,6 C 33,8 km/h (5 Bft)
13.01.2023 13:33 5,2 C 4,4 C 86 % 1011,5 hPa 0,0 l/m 25,4 km/h (4 Bft) SW 218 0 min 0,2 UV-I 90 W/m 3,1 C -4,8 C 38,6 km/h (5 Bft)
13.01.2023 13:36 5,3 C 4,4 C 85 % 1011,6 hPa 0,0 l/m 27,5 km/h (4 Bft) S 191 0 min 0,3 UV-I 87 W/m 3,0 C -5,3 C 40,2 km/h (6 Bft)
13.01.2023 13:39 5,2 C 5,0 C 85 % 1011,6 hPa 0,0 l/m 20,7 km/h (4 Bft) SW 224 0 min 0,5 UV-I 103 W/m 2,9 C -3,2 C 37,0 km/h (5 Bft)
13.01.2023 13:42 5,3 C 5,0 C 85 % 1011,6 hPa 0,0 l/m 18,2 km/h (3 Bft) S 187 0 min 0,5 UV-I 103 W/m 3,0 C -2,0 C 27,4 km/h (4 Bft)
13.01.2023 13:45 5,3 C 5,0 C 85 % 1011,5 hPa 0,0 l/m 20,7 km/h (4 Bft) SW 217 0 min 0,5 UV-I 80 W/m 3,0 C -3,1 C 32,2 km/h (5 Bft)
13.01.2023 13:48 5,3 C 5,0 C 84 % 1011,5 hPa 0,0 l/m 25,1 km/h (4 Bft) S-SW 200 0 min 0,5 UV-I 81 W/m 2,8 C -4,6 C 38,6 km/h (5 Bft)
13.01.2023 13:51 5,3 C 5,6 C 84 % 1011,5 hPa 0,0 l/m 24,3 km/h (4 Bft) S-SW 203 0 min 0,4 UV-I 104 W/m 2,8 C -4,3 C 40,2 km/h (6 Bft)
13.01.2023 13:54 5,6 C 5,6 C 83 % 1011,5 hPa 0,0 l/m 25,1 km/h (4 Bft) S-SW 213 0 min 0,7 UV-I 142 W/m 2,9 C -4,2 C 35,4 km/h (5 Bft)
13.01.2023 13:57 5,5 C 5,0 C 83 % 1011,6 hPa 0,0 l/m 21,7 km/h (4 Bft) S-SW 197 0 min 0,5 UV-I 79 W/m 2,8 C -3,2 C 38,6 km/h (5 Bft)
13.01.2023 14:00 5,5 C 5,0 C 83 % 1011,6 hPa 0,0 l/m 23,7 km/h (4 Bft) S-SW 209 0 min 0,5 UV-I 102 W/m 2,8 C -3,8 C 37,0 km/h (5 Bft)
13.01.2023 14:03 5,5 C 5,0 C 83 % 1011,6 hPa 0,0 l/m 24,4 km/h (4 Bft) S 184 0 min 0,5 UV-I 97 W/m 2,8 C -4,1 C 33,8 km/h (5 Bft)
13.01.2023 14:06 5,5 C 5,0 C 83 % 1011,7 hPa 0,0 l/m 22,7 km/h (4 Bft) S 180 0 min 0,5 UV-I 87 W/m 2,8 C -3,5 C 40,2 km/h (6 Bft)
13.01.2023 14:09 5,5 C 5,0 C 83 % 1011,6 hPa 0,0 l/m 20,6 km/h (4 Bft) S-SW 205 0 min 0,0 UV-I 56 W/m 2,8 C -2,8 C 40,2 km/h (6 Bft)
13.01.2023 14:12 5,5 C 4,4 C 83 % 1011,8 hPa 0,0 l/m 19,6 km/h (3 Bft) SW 223 0 min 0,0 UV-I 32 W/m 2,8 C -2,4 C 29,0 km/h (5 Bft)
13.01.2023 14:15 5,4 C 4,4 C 84 % 1011,9 hPa 0,0 l/m 19,7 km/h (3 Bft) S 190 0 min 0,0 UV-I 27 W/m 2,9 C -2,5 C 33,8 km/h (5 Bft)
13.01.2023 14:18 5,3 C 4,4 C 84 % 1011,8 hPa 0,0 l/m 19,9 km/h (4 Bft) S-SW 196 0 min 0,0 UV-I 37 W/m 2,8 C -2,7 C 40,2 km/h (6 Bft)
13.01.2023 14:21 5,3 C 4,4 C 84 % 1011,9 hPa 0,0 l/m 22,7 km/h (4 Bft) SW 219 0 min 0,0 UV-I 53 W/m 2,8 C -3,8 C 35,4 km/h (5 Bft)
13.01.2023 14:24 5,4 C 4,4 C 84 % 1011,7 hPa 0,0 l/m 28,7 km/h (4 Bft) S-SW 213 0 min 0,0 UV-I 47 W/m 2,9 C -5,5 C 43,5 km/h (6 Bft)
13.01.2023 14:27 5,4 C 4,4 C 84 % 1011,9 hPa 0,0 l/m 25,4 km/h (4 Bft) SW 217 0 min 0,0 UV-I 55 W/m 2,9 C -4,5 C 41,8 km/h (6 Bft)
13.01.2023 14:30 5,4 C 4,4 C 84 % 1012,0 hPa 0,0 l/m 22,3 km/h (4 Bft) SW 219 0 min 0,0 UV-I 51 W/m 2,9 C -3,5 C 32,2 km/h (5 Bft)
13.01.2023 14:33 5,3 C 4,4 C 84 % 1012,0 hPa 0,0 l/m 22,6 km/h (4 Bft) S 184 0 min 0,0 UV-I 34 W/m 2,8 C -3,7 C 33,8 km/h (5 Bft)
13.01.2023 14:36 5,3 C 4,4 C 85 % 1012,1 hPa 0,0 l/m 20,7 km/h (4 Bft) SW 222 0 min 0,0 UV-I 27 W/m 3,0 C -3,1 C 32,2 km/h (5 Bft)
13.01.2023 14:39 5,2 C 3,9 C 85 % 1012,2 hPa 0,0 l/m 25,9 km/h (4 Bft) SW 233 0 min 0,0 UV-I 29 W/m 2,9 C -5,0 C 40,2 km/h (6 Bft)
13.01.2023 14:42 5,0 C 3,9 C 86 % 1012,2 hPa 0,0 l/m 18,1 km/h (3 Bft) S-SW 202 0 min 0,0 UV-I 22 W/m 2,9 C -2,4 C 32,2 km/h (5 Bft)
13.01.2023 14:45 4,9 C 3,9 C 87 % 1012,2 hPa 0,2 l/m 19,3 km/h (3 Bft) S 190 0 min 0,0 UV-I 21 W/m 2,9 C -3,0 C 29,0 km/h (5 Bft)
13.01.2023 14:48 4,8 C 3,9 C 87 % 1012,4 hPa 0,2 l/m 15,5 km/h (3 Bft) S 175 0 min 0,0 UV-I 43 W/m 2,8 C -1,4 C 25,7 km/h (4 Bft)
13.01.2023 14:51 4,7 C 3,9 C 88 % 1012,4 hPa 0,0 l/m 17,8 km/h (3 Bft) SW 225 0 min 0,0 UV-I 37 W/m 2,9 C -2,6 C 30,6 km/h (5 Bft)
13.01.2023 14:54 4,7 C 3,9 C 88 % 1012,4 hPa 0,0 l/m 13,7 km/h (3 Bft) S-SW 194 0 min 0,0 UV-I 28 W/m 2,9 C -0,6 C 27,4 km/h (4 Bft)
13.01.2023 14:57 4,6 C 3,9 C 89 % 1012,4 hPa 0,0 l/m 15,0 km/h (3 Bft) SW 229 0 min 0,0 UV-I 42 W/m 2,9 C -1,4 C 25,7 km/h (4 Bft)
13.01.2023 15:00 4,6 C 3,9 C 89 % 1012,5 hPa 0,2 l/m 14,5 km/h (3 Bft) S-SW 203 0 min 0,0 UV-I 17 W/m 2,9 C -1,1 C 25,7 km/h (4 Bft)
13.01.2023 15:03 4,6 C 3,9 C 89 % 1012,5 hPa 0,0 l/m 13,9 km/h (3 Bft) W-SW 237 0 min 0,0 UV-I 16 W/m 2,9 C -0,8 C 24,1 km/h (4 Bft)
13.01.2023 15:06 4,5 C 3,9 C 89 % 1012,6 hPa 0,2 l/m 13,6 km/h (3 Bft) SW 219 0 min 0,0 UV-I 25 W/m 2,8 C -0,8 C 25,7 km/h (4 Bft)
13.01.2023 15:09 4,6 C 3,9 C 90 % 1012,6 hPa 0,0 l/m 11,8 km/h (2 Bft) S-SW 198 0 min 0,0 UV-I 31 W/m 3,1 C 0,4 C 24,1 km/h (4 Bft)
13.01.2023 15:12 4,6 C 3,9 C 90 % 1012,6 hPa 0,0 l/m 14,8 km/h (3 Bft) W-NW 291 0 min 0,0 UV-I 18 W/m 3,1 C -1,3 C 30,6 km/h (5 Bft)
13.01.2023 15:15 4,6 C 3,9 C 90 % 1012,7 hPa 0,2 l/m 17,7 km/h (3 Bft) S-SW 196 0 min 0,0 UV-I 21 W/m 3,1 C -2,7 C 35,4 km/h (5 Bft)
13.01.2023 15:18 4,6 C 3,9 C 90 % 1012,7 hPa 0,0 l/m 16,6 km/h (3 Bft) W-SW 242 0 min 0,0 UV-I 41 W/m 3,1 C -2,2 C 27,4 km/h (4 Bft)
13.01.2023 15:21 4,6 C 3,9 C 90 % 1012,7 hPa 0,2 l/m 18,4 km/h (3 Bft) W-SW 237 0 min 0,0 UV-I 14 W/m 3,1 C -3,0 C 32,2 km/h (5 Bft)
13.01.2023 15:24 4,6 C 3,9 C 90 % 1012,8 hPa 0,0 l/m 16,5 km/h (3 Bft) S 190 0 min 0,0 UV-I 29 W/m 3,1 C -2,2 C 29,0 km/h (5 Bft)
13.01.2023 15:27 4,5 C 3,9 C 90 % 1012,8 hPa 0,0 l/m 14,7 km/h (3 Bft) SW 227 0 min 0,0 UV-I 32 W/m 3,0 C -1,4 C 30,6 km/h (5 Bft)
13.01.2023 15:30 4,5 C 3,9 C 90 % 1012,8 hPa 0,0 l/m 15,7 km/h (3 Bft) SW 223 0 min 0,0 UV-I 38 W/m 3,0 C -1,9 C 30,6 km/h (5 Bft)
13.01.2023 15:33 4,6 C 3,9 C 90 % 1012,9 hPa 0,0 l/m 13,8 km/h (3 Bft) W-SW 238 0 min 0,0 UV-I 24 W/m 3,1 C -0,8 C 24,1 km/h (4 Bft)
13.01.2023 15:36 4,6 C 3,9 C 90 % 1013,0 hPa 0,0 l/m 14,3 km/h (3 Bft) SW 224 0 min 0,0 UV-I 11 W/m 3,1 C -1,0 C 25,7 km/h (4 Bft)
13.01.2023 15:39 4,6 C 3,9 C 90 % 1013,0 hPa 0,0 l/m 16,4 km/h (3 Bft) S-SW 209 0 min 0,0 UV-I 11 W/m 3,1 C -2,1 C 27,4 km/h (4 Bft)
13.01.2023 15:42 4,7 C 3,9 C 90 % 1013,0 hPa 0,2 l/m 17,0 km/h (3 Bft) S-SW 194 0 min 0,0 UV-I 12 W/m 3,2 C -2,3 C 29,0 km/h (5 Bft)
13.01.2023 15:45 4,7 C 3,9 C 90 % 1013,1 hPa 0,0 l/m 20,6 km/h (4 Bft) S-SW 205 0 min 0,0 UV-I 13 W/m 3,2 C -3,8 C 33,8 km/h (5 Bft)
13.01.2023 15:48 4,7 C 3,9 C 89 % 1013,1 hPa 0,0 l/m 18,4 km/h (3 Bft) W-SW 243 0 min 0,0 UV-I 17 W/m 3,0 C -2,9 C 33,8 km/h (5 Bft)
13.01.2023 15:51 4,8 C 3,9 C 89 % 1013,1 hPa 0,0 l/m 13,4 km/h (3 Bft) S-SW 211 0 min 0,0 UV-I 12 W/m 3,1 C -0,3 C 25,7 km/h (4 Bft)
13.01.2023 15:54 4,8 C 3,9 C 89 % 1013,1 hPa 0,0 l/m 14,0 km/h (3 Bft) SW 217 0 min 0,0 UV-I 15 W/m 3,1 C -0,6 C 29,0 km/h (5 Bft)
13.01.2023 15:57 4,8 C 3,9 C 89 % 1013,2 hPa 0,0 l/m 14,1 km/h (3 Bft) W-SW 237 0 min 0,0 UV-I 18 W/m 3,1 C -0,7 C 25,7 km/h (4 Bft)
13.01.2023 16:00 4,8 C 3,9 C 89 % 1013,2 hPa 0,2 l/m 11,9 km/h (2 Bft) S-SW 196 0 min 0,0 UV-I 12 W/m 3,1 C 0,6 C 22,5 km/h (4 Bft)
13.01.2023 16:03 4,8 C 3,9 C 89 % 1013,3 hPa 0,0 l/m 19,9 km/h (4 Bft) W-SW 244 0 min 0,0 UV-I 11 W/m 3,1 C -3,4 C 37,0 km/h (5 Bft)
13.01.2023 16:06 4,8 C 3,9 C 88 % 1013,3 hPa 0,0 l/m 16,1 km/h (3 Bft) SW 223 0 min 0,0 UV-I 16 W/m 3,0 C -1,7 C 29,0 km/h (5 Bft)
13.01.2023 16:09 4,8 C 3,9 C 88 % 1013,4 hPa 0,0 l/m 17,4 km/h (3 Bft) SW 229 0 min 0,0 UV-I 19 W/m 3,0 C -2,3 C 32,2 km/h (5 Bft)
13.01.2023 16:12 4,9 C 3,9 C 88 % 1013,5 hPa 0,0 l/m 24,0 km/h (4 Bft) SW 216 0 min 0,0 UV-I 15 W/m 3,1 C -4,8 C 41,8 km/h (6 Bft)
13.01.2023 16:15 4,9 C 3,9 C 87 % 1013,4 hPa 0,0 l/m 21,1 km/h (4 Bft) S-SW 205 0 min 0,0 UV-I 15 W/m 2,9 C -3,7 C 38,6 km/h (5 Bft)
13.01.2023 16:18 4,9 C 3,9 C 87 % 1013,5 hPa 0,0 l/m 18,9 km/h (3 Bft) W-SW 249 0 min 0,0 UV-I 9 W/m 2,9 C -2,9 C 41,8 km/h (6 Bft)
13.01.2023 16:21 4,9 C 3,9 C 87 % 1013,6 hPa 0,0 l/m 13,9 km/h (3 Bft) S-SW 213 0 min 0,0 UV-I 18 W/m 2,9 C -0,5 C 29,0 km/h (5 Bft)
13.01.2023 16:24 5,0 C 3,9 C 87 % 1013,4 hPa 0,0 l/m 15,4 km/h (3 Bft) SW 217 0 min 0,0 UV-I 42 W/m 3,0 C -1,1 C 30,6 km/h (5 Bft)
13.01.2023 16:27 5,1 C 3,9 C 87 % 1013,6 hPa 0,0 l/m 18,4 km/h (3 Bft) S 175 0 min 0,0 UV-I 36 W/m 3,1 C -2,4 C 35,4 km/h (5 Bft)
13.01.2023 16:30 5,1 C 3,9 C 87 % 1013,6 hPa 0,0 l/m 24,1 km/h (4 Bft) S 188 0 min 0,0 UV-I 27 W/m 3,1 C -4,5 C 41,8 km/h (6 Bft)
13.01.2023 16:33 5,1 C 3,9 C 86 % 1013,8 hPa 0,0 l/m 16,0 km/h (3 Bft) W 263 0 min 0,0 UV-I 23 W/m 3,0 C -1,3 C 33,8 km/h (5 Bft)
13.01.2023 16:36 5,1 C 3,9 C 86 % 1014,0 hPa 0,0 l/m 16,0 km/h (3 Bft) W 259 0 min 0,0 UV-I 21 W/m 3,0 C -1,3 C 24,1 km/h (4 Bft)
13.01.2023 16:39 5,1 C 4,4 C 86 % 1013,9 hPa 0,0 l/m 18,7 km/h (3 Bft) SW 232 0 min 0,0 UV-I 21 W/m 3,0 C -2,5 C 40,2 km/h (6 Bft)
13.01.2023 16:42 5,2 C 4,4 C 86 % 1014,0 hPa 0,0 l/m 17,3 km/h (3 Bft) S-SW 201 0 min 0,0 UV-I 18 W/m 3,1 C -1,8 C 29,0 km/h (5 Bft)
13.01.2023 16:45 5,1 C 4,4 C 86 % 1014,1 hPa 0,0 l/m 16,7 km/h (3 Bft) S-SW 199 0 min 0,0 UV-I 14 W/m 3,0 C -1,6 C 27,4 km/h (4 Bft)
13.01.2023 16:48 5,1 C 4,4 C 86 % 1014,0 hPa 0,0 l/m 17,2 km/h (3 Bft) S-SW 199 0 min 0,0 UV-I 14 W/m 3,0 C -1,9 C 30,6 km/h (5 Bft)
13.01.2023 16:51 5,1 C 3,9 C 86 % 1014,0 hPa 0,0 l/m 21,4 km/h (4 Bft) S-SW 193 0 min 0,0 UV-I 14 W/m 3,0 C -3,6 C 38,6 km/h (5 Bft)
13.01.2023 16:54 5,1 C 3,9 C 86 % 1014,1 hPa 0,0 l/m 18,6 km/h (3 Bft) S-SW 201 0 min 0,0 UV-I 10 W/m 3,0 C -2,5 C 35,4 km/h (5 Bft)
13.01.2023 16:57 5,1 C 3,9 C 86 % 1014,1 hPa 0,0 l/m 18,5 km/h (3 Bft) S-SW 196 0 min 0,0 UV-I 4 W/m 3,0 C -2,4 C 37,0 km/h (5 Bft)
13.01.2023 17:00 5,0 C 3,9 C 87 % 1014,1 hPa 0,0 l/m 17,6 km/h (3 Bft) S-SW 211 0 min 0,0 UV-I 0 W/m 3,0 C -2,2 C 24,1 km/h (4 Bft)
13.01.2023 17:03 5,0 C 3,9 C 87 % 1014,0 hPa 0,0 l/m 19,9 km/h (4 Bft) S-SW 192 0 min 0,0 UV-I 0 W/m 3,0 C -3,1 C 38,6 km/h (5 Bft)
13.01.2023 17:06 5,0 C 3,9 C 86 % 1014,0 hPa 0,0 l/m 20,9 km/h (4 Bft) S-SW 200 0 min 0,0 UV-I 0 W/m 2,9 C -3,5 C 32,2 km/h (5 Bft)
13.01.2023 17:09 5,0 C 3,9 C 86 % 1014,0 hPa 0,0 l/m 21,3 km/h (4 Bft) W-SW 239 0 min 0,0 UV-I 0 W/m 2,9 C -3,7 C 38,6 km/h (5 Bft)
13.01.2023 17:12 5,1 C 3,9 C 86 % 1014,1 hPa 0,0 l/m 19,9 km/h (4 Bft) S-SW 200 0 min 0,0 UV-I 0 W/m 3,0 C -3,0 C 32,2 km/h (5 Bft)
13.01.2023 17:15 5,0 C 3,9 C 86 % 1014,2 hPa 0,0 l/m 16,3 km/h (3 Bft) W-SW 254 0 min 0,0 UV-I 0 W/m 2,9 C -1,6 C 24,1 km/h (4 Bft)
13.01.2023 17:18 5,0 C 3,9 C 86 % 1014,2 hPa 0,0 l/m 21,6 km/h (4 Bft) W-SW 240 0 min 0,0 UV-I 0 W/m 2,9 C -3,8 C 38,6 km/h (5 Bft)
13.01.2023 17:21 5,0 C 3,9 C 86 % 1014,4 hPa 0,0 l/m 25,3 km/h (4 Bft) S-SW 206 0 min 0,0 UV-I 0 W/m 2,9 C -5,0 C 49,9 km/h (6 Bft)
13.01.2023 17:24 5,1 C 3,9 C 86 % 1014,3 hPa 0,0 l/m 21,5 km/h (4 Bft) S-SW 194 0 min 0,0 UV-I 0 W/m 3,0 C -3,6 C 35,4 km/h (5 Bft)
13.01.2023 17:27 5,1 C 3,9 C 86 % 1014,6 hPa 0,0 l/m 23,8 km/h (4 Bft) S-SW 202 0 min 0,0 UV-I 0 W/m 3,0 C -4,4 C 33,8 km/h (5 Bft)
13.01.2023 17:30 5,1 C 3,9 C 86 % 1014,5 hPa 0,0 l/m 19,3 km/h (3 Bft) SW 222 0 min 0,0 UV-I 0 W/m 3,0 C -2,8 C 37,0 km/h (5 Bft)
13.01.2023 17:33 5,0 C 3,9 C 86 % 1014,7 hPa 0,0 l/m 21,0 km/h (4 Bft) SW 230 0 min 0,0 UV-I 0 W/m 2,9 C -3,6 C 32,2 km/h (5 Bft)
13.01.2023 17:39 4,9 C 3,9 C 86 % 1014,7 hPa 0,0 l/m 16,6 km/h (3 Bft) SW 224 0 min 0,0 UV-I 0 W/m 2,8 C -1,8 C 33,8 km/h (5 Bft)
13.01.2023 17:42 4,9 C 3,9 C 86 % 1014,7 hPa 0,0 l/m 19,2 km/h (3 Bft) S-SW 209 0 min 0,0 UV-I 0 W/m 2,8 C -3,0 C 35,4 km/h (5 Bft)
13.01.2023 17:45 4,9 C 3,9 C 86 % 1014,9 hPa 0,0 l/m 20,6 km/h (4 Bft) SW 223 0 min 0,0 UV-I 0 W/m 2,8 C -3,5 C 37,0 km/h (5 Bft)
13.01.2023 17:48 4,9 C 3,3 C 86 % 1014,9 hPa 0,0 l/m 18,0 km/h (3 Bft) S-SW 213 0 min 0,0 UV-I 0 W/m 2,8 C -2,5 C 29,0 km/h (5 Bft)
13.01.2023 17:51 4,8 C 3,3 C 87 % 1015,0 hPa 0,0 l/m 17,4 km/h (3 Bft) W-SW 251 0 min 0,0 UV-I 0 W/m 2,8 C -2,3 C 29,0 km/h (5 Bft)
13.01.2023 17:54 4,8 C 3,3 C 87 % 1015,0 hPa 0,0 l/m 18,4 km/h (3 Bft) S-SW 209 0 min 0,0 UV-I 0 W/m 2,8 C -2,8 C 37,0 km/h (5 Bft)
13.01.2023 17:57 4,7 C 3,3 C 87 % 1015,1 hPa 0,0 l/m 17,2 km/h (3 Bft) S-SW 196 0 min 0,0 UV-I 0 W/m 2,7 C -2,4 C 30,6 km/h (5 Bft)
13.01.2023 18:00 4,7 C 3,3 C 87 % 1015,2 hPa 0,0 l/m 16,2 km/h (3 Bft) W-SW 255 0 min 0,0 UV-I 0 W/m 2,7 C -1,9 C 25,7 km/h (4 Bft)
13.01.2023 18:03 4,7 C 3,3 C 87 % 1015,2 hPa 0,0 l/m 20,3 km/h (4 Bft) W-SW 252 0 min 0,0 UV-I 0 W/m 2,7 C -3,7 C 41,8 km/h (6 Bft)
13.01.2023 18:06 4,7 C 3,3 C 87 % 1015,4 hPa 0,0 l/m 15,8 km/h (3 Bft) SW 215 0 min 0,0 UV-I 0 W/m 2,7 C -1,7 C 25,7 km/h (4 Bft)
13.01.2023 18:09 4,6 C 3,3 C 87 % 1015,4 hPa 0,0 l/m 18,8 km/h (3 Bft) SW 234 0 min 0,0 UV-I 0 W/m 2,6 C -3,2 C 30,6 km/h (5 Bft)
13.01.2023 18:12 4,7 C 3,3 C 87 % 1015,5 hPa 0,0 l/m 18,8 km/h (3 Bft) S-SW 197 0 min 0,0 UV-I 0 W/m 2,7 C -3,1 C 32,2 km/h (5 Bft)
13.01.2023 18:15 4,6 C 3,3 C 88 % 1015,5 hPa 0,0 l/m 15,6 km/h (3 Bft) W-SW 240 0 min 0,0 UV-I 0 W/m 2,8 C -1,7 C 27,4 km/h (4 Bft)
13.01.2023 18:18 4,6 C 3,3 C 88 % 1015,6 hPa 0,0 l/m 15,7 km/h (3 Bft) SW 221 0 min 0,0 UV-I 0 W/m 2,8 C -1,8 C 32,2 km/h (5 Bft)
13.01.2023 18:21 4,6 C 3,3 C 88 % 1015,6 hPa 0,2 l/m 13,5 km/h (3 Bft) W-SW 250 0 min 0,0 UV-I 0 W/m 2,8 C -0,6 C 24,1 km/h (4 Bft)
13.01.2023 18:24 4,7 C 3,9 C 88 % 1015,6 hPa 0,0 l/m 17,9 km/h (3 Bft) S-SW 198 0 min 0,0 UV-I 0 W/m 2,9 C -2,7 C 30,6 km/h (5 Bft)
13.01.2023 18:27 4,7 C 3,9 C 89 % 1015,7 hPa 0,0 l/m 16,2 km/h (3 Bft) S-SW 195 0 min 0,0 UV-I 0 W/m 3,0 C -1,9 C 29,0 km/h (5 Bft)
13.01.2023 18:30 4,7 C 3,9 C 89 % 1015,7 hPa 0,0 l/m 11,2 km/h (2 Bft) S 182 0 min 0,0 UV-I 0 W/m 3,0 C 0,9 C 20,9 km/h (4 Bft)
13.01.2023 18:33 4,7 C 3,9 C 89 % 1015,7 hPa 0,0 l/m 14,3 km/h (3 Bft) S-SW 200 0 min 0,0 UV-I 0 W/m 3,0 C -0,9 C 20,9 km/h (4 Bft)
13.01.2023 18:36 4,6 C 3,9 C 89 % 1015,9 hPa 0,2 l/m 18,2 km/h (3 Bft) SW 234 0 min 0,0 UV-I 0 W/m 2,9 C -2,9 C 27,4 km/h (4 Bft)
13.01.2023 18:39 4,6 C 3,9 C 89 % 1015,9 hPa 0,0 l/m 17,6 km/h (3 Bft) SW 221 0 min 0,0 UV-I 0 W/m 2,9 C -2,7 C 33,8 km/h (5 Bft)
13.01.2023 18:42 4,6 C 3,3 C 89 % 1015,8 hPa 0,0 l/m 16,4 km/h (3 Bft) S-SW 202 0 min 0,0 UV-I 0 W/m 2,9 C -2,1 C 27,4 km/h (4 Bft)
13.01.2023 18:45 4,6 C 3,9 C 89 % 1015,8 hPa 0,0 l/m 17,3 km/h (3 Bft) S 184 0 min 0,0 UV-I 0 W/m 2,9 C -2,5 C 30,6 km/h (5 Bft)
13.01.2023 18:48 4,6 C 3,9 C 89 % 1015,8 hPa 0,2 l/m 17,1 km/h (3 Bft) S-SW 198 0 min 0,0 UV-I 0 W/m 2,9 C -2,4 C 29,0 km/h (5 Bft)
13.01.2023 18:51 4,6 C 3,9 C 89 % 1015,8 hPa 0,0 l/m 15,6 km/h (3 Bft) SW 219 0 min 0,0 UV-I 0 W/m 2,9 C -1,7 C 25,7 km/h (4 Bft)
13.01.2023 18:54 4,6 C 3,9 C 89 % 1016,1 hPa 0,0 l/m 14,3 km/h (3 Bft) S-SW 199 0 min 0,0 UV-I 0 W/m 2,9 C -1,0 C 22,5 km/h (4 Bft)
13.01.2023 18:57 4,6 C 3,9 C 89 % 1015,9 hPa 0,0 l/m 18,4 km/h (3 Bft) S 178 0 min 0,0 UV-I 0 W/m 2,9 C -3,0 C 27,4 km/h (4 Bft)
13.01.2023 19:00 4,6 C 3,3 C 89 % 1015,9 hPa 0,0 l/m 19,7 km/h (3 Bft) S-SW 202 0 min 0,0 UV-I 0 W/m 2,9 C -3,6 C 30,6 km/h (5 Bft)
13.01.2023 19:03 4,6 C 3,3 C 89 % 1015,9 hPa 0,0 l/m 23,4 km/h (4 Bft) S-SW 192 0 min 0,0 UV-I 0 W/m 2,9 C -5,0 C 40,2 km/h (6 Bft)
13.01.2023 19:06 4,6 C 3,3 C 89 % 1016,1 hPa 0,2 l/m 23,9 km/h (4 Bft) SW 231 0 min 0,0 UV-I 0 W/m 2,9 C -5,1 C 53,1 km/h (7 Bft)
13.01.2023 19:09 4,6 C 3,3 C 89 % 1016,2 hPa 0,0 l/m 16,8 km/h (3 Bft) W-SW 254 0 min 0,0 UV-I 0 W/m 2,9 C -2,3 C 29,0 km/h (5 Bft)
13.01.2023 19:12 4,6 C 3,9 C 89 % 1016,2 hPa 0,0 l/m 15,6 km/h (3 Bft) SW 236 0 min 0,0 UV-I 0 W/m 2,9 C -1,7 C 33,8 km/h (5 Bft)
13.01.2023 19:15 4,6 C 3,9 C 89 % 1016,2 hPa 0,0 l/m 18,9 km/h (3 Bft) W-SW 238 0 min 0,0 UV-I 0 W/m 2,9 C -3,2 C 33,8 km/h (5 Bft)
13.01.2023 19:18 4,6 C 3,3 C 89 % 1016,2 hPa 0,0 l/m 20,6 km/h (4 Bft) S 187 0 min 0,0 UV-I 0 W/m 2,9 C -3,9 C 37,0 km/h (5 Bft)
13.01.2023 19:21 4,6 C 3,3 C 89 % 1016,2 hPa 0,0 l/m 18,1 km/h (3 Bft) SW 221 0 min 0,0 UV-I 0 W/m 2,9 C -2,9 C 38,6 km/h (5 Bft)
13.01.2023 19:24 4,6 C 3,3 C 89 % 1016,4 hPa 0,0 l/m 13,3 km/h (3 Bft) SW 227 0 min 0,0 UV-I 0 W/m 2,9 C -0,5 C 22,5 km/h (4 Bft)
13.01.2023 19:27 4,6 C 3,3 C 89 % 1016,3 hPa 0,0 l/m 14,0 km/h (3 Bft) SW 227 0 min 0,0 UV-I 0 W/m 2,9 C -0,9 C 25,7 km/h (4 Bft)
13.01.2023 19:30 4,6 C 3,3 C 89 % 1016,4 hPa 0,0 l/m 13,5 km/h (3 Bft) NW 321 0 min 0,0 UV-I 0 W/m 2,9 C -0,6 C 25,7 km/h (4 Bft)
13.01.2023 19:33 4,6 C 3,3 C 89 % 1016,5 hPa 0,0 l/m 15,8 km/h (3 Bft) W-SW 240 0 min 0,0 UV-I 0 W/m 2,9 C -1,8 C 30,6 km/h (5 Bft)
13.01.2023 19:36 4,6 C 3,3 C 89 % 1016,6 hPa 0,0 l/m 16,9 km/h (3 Bft) W 260 0 min 0,0 UV-I 0 W/m 2,9 C -2,3 C 32,2 km/h (5 Bft)
13.01.2023 19:39 4,6 C 3,3 C 88 % 1016,4 hPa 0,0 l/m 14,2 km/h (3 Bft) S 182 0 min 0,0 UV-I 0 W/m 2,8 C -1,0 C 29,0 km/h (5 Bft)
13.01.2023 19:42 4,6 C 3,3 C 88 % 1016,6 hPa 0,0 l/m 14,5 km/h (3 Bft) SW 225 0 min 0,0 UV-I 0 W/m 2,8 C -1,1 C 22,5 km/h (4 Bft)
13.01.2023 19:45 4,6 C 3,3 C 88 % 1016,7 hPa 0,0 l/m 19,6 km/h (3 Bft) W-SW 241 0 min 0,0 UV-I 0 W/m 2,8 C -3,5 C 32,2 km/h (5 Bft)
13.01.2023 19:48 4,6 C 3,3 C 88 % 1016,6 hPa 0,0 l/m 19,8 km/h (3 Bft) SW 232 0 min 0,0 UV-I 0 W/m 2,8 C -3,6 C 41,8 km/h (6 Bft)
13.01.2023 19:51 4,6 C 3,3 C 88 % 1016,6 hPa 0,0 l/m 13,7 km/h (3 Bft) SW 217 0 min 0,0 UV-I 0 W/m 2,8 C -0,7 C 24,1 km/h (4 Bft)
13.01.2023 19:54 4,6 C 3,3 C 88 % 1016,7 hPa 0,0 l/m 17,5 km/h (3 Bft) SW 224 0 min 0,0 UV-I 0 W/m 2,8 C -2,6 C 35,4 km/h (5 Bft)
13.01.2023 19:57 4,6 C 3,3 C 88 % 1016,7 hPa 0,0 l/m 18,0 km/h (3 Bft) SW 223 0 min 0,0 UV-I 0 W/m 2,8 C -2,8 C 32,2 km/h (5 Bft)
13.01.2023 20:00 4,6 C 3,3 C 88 % 1016,7 hPa 0,0 l/m 16,1 km/h (3 Bft) S 180 0 min 0,0 UV-I 0 W/m 2,8 C -2,0 C 27,4 km/h (4 Bft)
13.01.2023 20:03 4,6 C 3,3 C 88 % 1016,8 hPa 0,0 l/m 13,8 km/h (3 Bft) W-SW 244 0 min 0,0 UV-I 0 W/m 2,8 C -0,8 C 24,1 km/h (4 Bft)
13.01.2023 20:06 4,6 C 3,3 C 88 % 1016,7 hPa 0,0 l/m 20,5 km/h (4 Bft) W-SW 238 0 min 0,0 UV-I 0 W/m 2,8 C -3,9 C 40,2 km/h (6 Bft)
13.01.2023 20:09 4,5 C 3,3 C 88 % 1016,8 hPa 0,0 l/m 13,9 km/h (3 Bft) SW 223 0 min 0,0 UV-I 0 W/m 2,7 C -0,9 C 33,8 km/h (5 Bft)
13.01.2023 20:12 4,4 C 3,3 C 88 % 1016,8 hPa 0,0 l/m 15,6 km/h (3 Bft) SW 226 0 min 0,0 UV-I 0 W/m 2,6 C -2,0 C 29,0 km/h (5 Bft)
13.01.2023 20:15 4,4 C 3,3 C 88 % 1016,8 hPa 0,0 l/m 19,1 km/h (3 Bft) SW 228 0 min 0,0 UV-I 0 W/m 2,6 C -3,6 C 38,6 km/h (5 Bft)
13.01.2023 20:18 4,4 C 3,3 C 88 % 1017,1 hPa 0,0 l/m 18,6 km/h (3 Bft) S-SW 203 0 min 0,0 UV-I 0 W/m 2,6 C -3,4 C 32,2 km/h (5 Bft)
13.01.2023 20:21 4,4 C 3,3 C 88 % 1017,1 hPa 0,0 l/m 18,1 km/h (3 Bft) S-SW 200 0 min 0,0 UV-I 0 W/m 2,6 C -3,1 C 43,5 km/h (6 Bft)
13.01.2023 20:24 4,3 C 3,3 C 88 % 1017,1 hPa 0,0 l/m 15,0 km/h (3 Bft) SW 219 0 min 0,0 UV-I 0 W/m 2,5 C -1,8 C 24,1 km/h (4 Bft)
13.01.2023 20:27 4,3 C 3,3 C 88 % 1017,3 hPa 0,0 l/m 14,8 km/h (3 Bft) SW 221 0 min 0,0 UV-I 0 W/m 2,5 C -1,7 C 29,0 km/h (5 Bft)
13.01.2023 20:30 4,3 C 3,3 C 88 % 1017,2 hPa 0,0 l/m 16,6 km/h (3 Bft) W-SW 248 0 min 0,0 UV-I 0 W/m 2,5 C -2,6 C 32,2 km/h (5 Bft)
13.01.2023 20:33 4,3 C 3,3 C 88 % 1017,3 hPa 0,2 l/m 15,5 km/h (3 Bft) SW 221 0 min 0,0 UV-I 0 W/m 2,5 C -2,0 C 25,7 km/h (4 Bft)
13.01.2023 20:36 4,3 C 3,3 C 89 % 1017,2 hPa 0,0 l/m 13,2 km/h (3 Bft) W 259 0 min 0,0 UV-I 0 W/m 2,7 C -0,8 C 20,9 km/h (4 Bft)
13.01.2023 20:39 4,3 C 3,3 C 89 % 1017,2 hPa 0,0 l/m 11,0 km/h (2 Bft) SW 233 0 min 0,0 UV-I 0 W/m 2,7 C 0,6 C 25,7 km/h (4 Bft)
13.01.2023 20:42 4,3 C 3,3 C 89 % 1017,2 hPa 0,0 l/m 14,8 km/h (3 Bft) W-SW 247 0 min 0,0 UV-I 0 W/m 2,7 C -1,7 C 22,5 km/h (4 Bft)
13.01.2023 20:45 4,3 C 3,3 C 89 % 1017,3 hPa 0,0 l/m 11,9 km/h (2 Bft) SW 229 0 min 0,0 UV-I 0 W/m 2,7 C 0,0 C 22,5 km/h (4 Bft)
13.01.2023 20:48 4,3 C 3,3 C 89 % 1017,3 hPa 0,0 l/m 12,9 km/h (3 Bft) SW 232 0 min 0,0 UV-I 0 W/m 2,7 C -0,6 C 25,7 km/h (4 Bft)
13.01.2023 20:51 4,3 C 3,3 C 89 % 1017,4 hPa 0,0 l/m 11,2 km/h (2 Bft) W 269 0 min 0,0 UV-I 0 W/m 2,7 C 0,5 C 24,1 km/h (4 Bft)
13.01.2023 20:54 4,3 C 3,3 C 89 % 1017,4 hPa 0,0 l/m 12,7 km/h (3 Bft) W-SW 246 0 min 0,0 UV-I 0 W/m 2,7 C -0,5 C 22,5 km/h (4 Bft)
13.01.2023 20:57 4,3 C 3,3 C 89 % 1017,4 hPa 0,0 l/m 12,9 km/h (3 Bft) SW 236 0 min 0,0 UV-I 0 W/m 2,7 C -0,6 C 24,1 km/h (4 Bft)
13.01.2023 21:00 4,3 C 3,3 C 89 % 1017,4 hPa 0,0 l/m 12,2 km/h (2 Bft) SW 220 0 min 0,0 UV-I 0 W/m 2,7 C -0,2 C 24,1 km/h (4 Bft)
13.01.2023 21:03 4,2 C 2,8 C 89 % 1017,4 hPa 0,0 l/m 12,9 km/h (3 Bft) S-SW 198 0 min 0,0 UV-I 0 W/m 2,6 C -0,7 C 22,5 km/h (4 Bft)
13.01.2023 21:06 4,2 C 2,8 C 89 % 1017,5 hPa 0,0 l/m 10,7 km/h (2 Bft) S-SW 204 0 min 0,0 UV-I 0 W/m 2,6 C 0,7 C 25,7 km/h (4 Bft)
13.01.2023 21:09 4,2 C 2,8 C 89 % 1017,5 hPa 0,0 l/m 12,2 km/h (2 Bft) S-SW 192 0 min 0,0 UV-I 0 W/m 2,6 C -0,3 C 25,7 km/h (4 Bft)
13.01.2023 21:12 4,1 C 2,8 C 89 % 1017,6 hPa 0,0 l/m 13,5 km/h (3 Bft) SW 220 0 min 0,0 UV-I 0 W/m 2,5 C -1,2 C 30,6 km/h (5 Bft)
13.01.2023 21:15 4,1 C 2,8 C 89 % 1017,6 hPa 0,0 l/m 13,9 km/h (3 Bft) S-SW 194 0 min 0,0 UV-I 0 W/m 2,5 C -1,4 C 22,5 km/h (4 Bft)
13.01.2023 21:18 4,1 C 2,8 C 89 % 1017,6 hPa 0,0 l/m 12,6 km/h (3 Bft) SW 215 0 min 0,0 UV-I 0 W/m 2,5 C -0,7 C 27,4 km/h (4 Bft)
13.01.2023 21:21 4,1 C 2,8 C 89 % 1017,6 hPa 0,0 l/m 13,6 km/h (3 Bft) W-SW 243 0 min 0,0 UV-I 0 W/m 2,5 C -1,2 C 22,5 km/h (4 Bft)
13.01.2023 21:24 4,1 C 2,8 C 89 % 1017,6 hPa 0,0 l/m 11,2 km/h (2 Bft) SW 225 0 min 0,0 UV-I 0 W/m 2,5 C 0,2 C 17,7 km/h (3 Bft)
13.01.2023 21:27 4,1 C 3,3 C 89 % 1017,6 hPa 0,0 l/m 20,5 km/h (4 Bft) S-SW 194 0 min 0,0 UV-I 0 W/m 2,5 C -4,5 C 33,8 km/h (5 Bft)
13.01.2023 21:30 4,1 C 3,3 C 89 % 1017,6 hPa 0,0 l/m 19,0 km/h (3 Bft) SW 219 0 min 0,0 UV-I 0 W/m 2,5 C -3,9 C 30,6 km/h (5 Bft)
13.01.2023 21:33 4,1 C 3,3 C 89 % 1017,7 hPa 0,0 l/m 14,2 km/h (3 Bft) SW 234 0 min 0,0 UV-I 0 W/m 2,5 C -1,6 C 25,7 km/h (4 Bft)
13.01.2023 21:36 4,1 C 3,3 C 89 % 1017,7 hPa 0,0 l/m 17,6 km/h (3 Bft) SW 226 0 min 0,0 UV-I 0 W/m 2,5 C -3,3 C 27,4 km/h (4 Bft)
13.01.2023 21:39 4,1 C 3,3 C 89 % 1017,8 hPa 0,0 l/m 16,2 km/h (3 Bft) SW 217 0 min 0,0 UV-I 0 W/m 2,5 C -2,6 C 32,2 km/h (5 Bft)
13.01.2023 21:42 4,1 C 3,3 C 89 % 1017,9 hPa 0,0 l/m 15,4 km/h (3 Bft) W-SW 252 0 min 0,0 UV-I 0 W/m 2,5 C -2,2 C 25,7 km/h (4 Bft)
13.01.2023 21:45 4,1 C 2,8 C 89 % 1017,6 hPa 0,0 l/m 21,0 km/h (4 Bft) W-SW 244 0 min 0,0 UV-I 0 W/m 2,5 C -4,7 C 35,4 km/h (5 Bft)
13.01.2023 21:48 4,0 C 2,8 C 89 % 1017,8 hPa 0,0 l/m 13,5 km/h (3 Bft) SW 232 0 min 0,0 UV-I 0 W/m 2,4 C -1,3 C 27,4 km/h (4 Bft)
13.01.2023 21:51 3,9 C 2,8 C 89 % 1017,9 hPa 0,0 l/m 12,5 km/h (3 Bft) S-SW 209 0 min 0,0 UV-I 0 W/m 2,3 C -0,8 C 24,1 km/h (4 Bft)
13.01.2023 21:54 3,8 C 2,8 C 89 % 1018,0 hPa 0,0 l/m 14,1 km/h (3 Bft) SW 217 0 min 0,0 UV-I 0 W/m 2,2 C -1,9 C 27,4 km/h (4 Bft)
13.01.2023 21:57 3,8 C 2,8 C 89 % 1018,0 hPa 0,0 l/m 10,6 km/h (2 Bft) W-SW 257 0 min 0,0 UV-I 0 W/m 2,2 C 0,3 C 17,7 km/h (3 Bft)
13.01.2023 22:00 3,8 C 2,8 C 89 % 1018,2 hPa 0,0 l/m 15,9 km/h (3 Bft) SW 215 0 min 0,0 UV-I 0 W/m 2,2 C -2,8 C 30,6 km/h (5 Bft)
13.01.2023 22:03 3,8 C 2,8 C 89 % 1018,2 hPa 0,2 l/m 21,4 km/h (4 Bft) SW 227 0 min 0,0 UV-I 0 W/m 2,2 C -5,3 C 38,6 km/h (5 Bft)
13.01.2023 22:06 3,8 C 2,8 C 89 % 1018,2 hPa 0,0 l/m 17,4 km/h (3 Bft) SW 220 0 min 0,0 UV-I 0 W/m 2,2 C -3,6 C 30,6 km/h (5 Bft)
13.01.2023 22:09 3,8 C 2,8 C 89 % 1018,1 hPa 0,0 l/m 11,5 km/h (2 Bft) S-SW 211 0 min 0,0 UV-I 0 W/m 2,2 C -0,3 C 29,0 km/h (5 Bft)
13.01.2023 22:12 3,8 C 2,8 C 89 % 1018,2 hPa 0,0 l/m 15,9 km/h (3 Bft) W 269 0 min 0,0 UV-I 0 W/m 2,2 C -2,8 C 25,7 km/h (4 Bft)
13.01.2023 22:15 3,8 C 2,8 C 89 % 1018,2 hPa 0,0 l/m 14,2 km/h (3 Bft) S 186 0 min 0,0 UV-I 0 W/m 2,2 C -1,9 C 24,1 km/h (4 Bft)
13.01.2023 22:18 3,8 C 2,8 C 89 % 1018,3 hPa 0,0 l/m 12,4 km/h (3 Bft) S-SW 197 0 min 0,0 UV-I 0 W/m 2,2 C -0,9 C 20,9 km/h (4 Bft)
13.01.2023 22:21 3,8 C 2,8 C 89 % 1018,3 hPa 0,0 l/m 15,9 km/h (3 Bft) SW 214 0 min 0,0 UV-I 0 W/m 2,2 C -2,8 C 27,4 km/h (4 Bft)
13.01.2023 22:24 3,8 C 2,8 C 89 % 1018,3 hPa 0,0 l/m 13,6 km/h (3 Bft) S-SW 196 0 min 0,0 UV-I 0 W/m 2,2 C -1,6 C 20,9 km/h (4 Bft)
13.01.2023 22:27 3,7 C 2,8 C 89 % 1018,3 hPa 0,0 l/m 11,1 km/h (2 Bft) SW 219 0 min 0,0 UV-I 0 W/m 2,1 C -0,1 C 22,5 km/h (4 Bft)
13.01.2023 22:30 3,8 C 2,8 C 89 % 1018,4 hPa 0,0 l/m 10,8 km/h (2 Bft) SW 234 0 min 0,0 UV-I 0 W/m 2,2 C 0,2 C 17,7 km/h (3 Bft)
13.01.2023 22:33 3,8 C 2,8 C 90 % 1018,5 hPa 0,0 l/m 13,4 km/h (3 Bft) SW 234 0 min 0,0 UV-I 0 W/m 2,3 C -1,5 C 24,1 km/h (4 Bft)
13.01.2023 22:36 3,8 C 2,8 C 90 % 1018,4 hPa 0,0 l/m 9,3 km/h (2 Bft) S-SW 192 0 min 0,0 UV-I 0 W/m 2,3 C 1,3 C 16,1 km/h (3 Bft)
13.01.2023 22:39 3,8 C 3,3 C 90 % 1018,4 hPa 0,0 l/m 9,4 km/h (2 Bft) SW 234 0 min 0,0 UV-I 0 W/m 2,3 C 1,2 C 19,3 km/h (3 Bft)
13.01.2023 22:42 3,9 C 3,3 C 90 % 1018,5 hPa 0,0 l/m 8,8 km/h (2 Bft) SW 220 0 min 0,0 UV-I 0 W/m 2,4 C 1,8 C 17,7 km/h (3 Bft)
13.01.2023 22:45 3,9 C 3,3 C 90 % 1018,4 hPa 0,0 l/m 14,3 km/h (3 Bft) S-SW 205 0 min 0,0 UV-I 0 W/m 2,4 C -1,9 C 20,9 km/h (4 Bft)
13.01.2023 22:48 4,0 C 3,3 C 90 % 1018,5 hPa 0,0 l/m 11,2 km/h (2 Bft) S-SW 205 0 min 0,0 UV-I 0 W/m 2,5 C 0,1 C 17,7 km/h (3 Bft)
13.01.2023 22:51 4,0 C 3,3 C 90 % 1018,5 hPa 0,0 l/m 14,9 km/h (3 Bft) S-SW 200 0 min 0,0 UV-I 0 W/m 2,5 C -2,1 C 20,9 km/h (4 Bft)
13.01.2023 22:54 4,0 C 3,3 C 90 % 1018,7 hPa 0,0 l/m 14,6 km/h (3 Bft) S-SW 197 0 min 0,0 UV-I 0 W/m 2,5 C -1,9 C 20,9 km/h (4 Bft)
13.01.2023 22:57 4,1 C 3,3 C 90 % 1018,7 hPa 0,0 l/m 13,7 km/h (3 Bft) SW 222 0 min 0,0 UV-I 0 W/m 2,6 C -1,3 C 19,3 km/h (3 Bft)
13.01.2023 23:00 4,1 C 3,3 C 90 % 1018,6 hPa 0,0 l/m 13,1 km/h (3 Bft) S-SW 199 0 min 0,0 UV-I 0 W/m 2,6 C -1,0 C 20,9 km/h (4 Bft)
13.01.2023 23:03 4,1 C 3,3 C 90 % 1018,6 hPa 0,0 l/m 14,6 km/h (3 Bft) S 186 0 min 0,0 UV-I 0 W/m 2,6 C -1,8 C 22,5 km/h (4 Bft)
13.01.2023 23:06 4,1 C 3,3 C 90 % 1018,6 hPa 0,0 l/m 12,0 km/h (2 Bft) W-SW 240 0 min 0,0 UV-I 0 W/m 2,6 C -0,3 C 20,9 km/h (4 Bft)
13.01.2023 23:09 4,1 C 3,3 C 90 % 1018,6 hPa 0,0 l/m 13,5 km/h (3 Bft) SW 232 0 min 0,0 UV-I 0 W/m 2,6 C -1,2 C 20,9 km/h (4 Bft)
13.01.2023 23:12 4,1 C 3,3 C 90 % 1018,7 hPa 0,0 l/m 13,4 km/h (3 Bft) SW 215 0 min 0,0 UV-I 0 W/m 2,6 C -1,1 C 17,7 km/h (3 Bft)
13.01.2023 23:15 4,2 C 3,3 C 90 % 1018,6 hPa 0,2 l/m 14,5 km/h (3 Bft) S-SW 213 0 min 0,0 UV-I 0 W/m 2,7 C -1,6 C 24,1 km/h (4 Bft)
13.01.2023 23:18 4,1 C 3,3 C 90 % 1018,7 hPa 0,0 l/m 12,2 km/h (2 Bft) S 190 0 min 0,0 UV-I 0 W/m 2,6 C -0,4 C 17,7 km/h (3 Bft)
13.01.2023 23:21 4,1 C 3,3 C 90 % 1018,6 hPa 0,0 l/m 14,5 km/h (3 Bft) S-SW 213 0 min 0,0 UV-I 0 W/m 2,6 C -1,7 C 22,5 km/h (4 Bft)
13.01.2023 23:24 4,1 C 3,3 C 90 % 1018,7 hPa 0,0 l/m 11,8 km/h (2 Bft) SW 221 0 min 0,0 UV-I 0 W/m 2,6 C -0,2 C 20,9 km/h (4 Bft)
13.01.2023 23:27 4,1 C 3,3 C 90 % 1018,7 hPa 0,0 l/m 15,2 km/h (3 Bft) S-SW 196 0 min 0,0 UV-I 0 W/m 2,6 C -2,1 C 24,1 km/h (4 Bft)
13.01.2023 23:30 4,1 C 3,3 C 90 % 1018,8 hPa 0,0 l/m 15,8 km/h (3 Bft) SW 223 0 min 0,0 UV-I 0 W/m 2,6 C -2,4 C 22,5 km/h (4 Bft)
13.01.2023 23:33 4,2 C 3,3 C 90 % 1018,8 hPa 0,0 l/m 12,9 km/h (3 Bft) SW 218 0 min 0,0 UV-I 0 W/m 2,7 C -0,7 C 20,9 km/h (4 Bft)
13.01.2023 23:36 4,2 C 3,3 C 90 % 1018,9 hPa 0,0 l/m 13,8 km/h (3 Bft) SW 234 0 min 0,0 UV-I 0 W/m 2,7 C -1,2 C 20,9 km/h (4 Bft)
13.01.2023 23:39 4,2 C 3,3 C 90 % 1018,8 hPa 0,0 l/m 14,0 km/h (3 Bft) S-SW 209 0 min 0,0 UV-I 0 W/m 2,7 C -1,4 C 20,9 km/h (4 Bft)
13.01.2023 23:42 4,2 C 3,3 C 90 % 1018,9 hPa 0,0 l/m 14,0 km/h (3 Bft) S 183 0 min 0,0 UV-I 0 W/m 2,7 C -1,4 C 20,9 km/h (4 Bft)
13.01.2023 23:45 4,2 C 3,3 C 90 % 1018,9 hPa 0,0 l/m 12,2 km/h (2 Bft) S 184 0 min 0,0 UV-I 0 W/m 2,7 C -0,3 C 19,3 km/h (3 Bft)
13.01.2023 23:48 4,2 C 3,3 C 90 % 1018,8 hPa 0,0 l/m 13,3 km/h (3 Bft) S-SW 194 0 min 0,0 UV-I 0 W/m 2,7 C -1,0 C 20,9 km/h (4 Bft)
13.01.2023 23:51 4,2 C 3,3 C 90 % 1018,9 hPa 0,0 l/m 14,1 km/h (3 Bft) S-SW 205 0 min 0,0 UV-I 0 W/m 2,7 C -1,4 C 22,5 km/h (4 Bft)
13.01.2023 23:54 4,2 C 3,3 C 90 % 1018,9 hPa 0,0 l/m 12,9 km/h (3 Bft) S-SW 202 0 min 0,0 UV-I 0 W/m 2,7 C -0,7 C 24,1 km/h (4 Bft)
13.01.2023 23:57 4,2 C 3,3 C 90 % 1018,9 hPa 0,0 l/m 14,3 km/h (3 Bft) S-SW 206 0 min 0,0 UV-I 0 W/m 2,7 C -1,5 C 19,3 km/h (3 Bft)
13.01.2023 23:58 4,2 C 3,3 C 90 % 1018,9 hPa 0,0 l/m 14,5 km/h (3 Bft) S-SW 202 0 min 0,0 UV-I 0 W/m 2,7 C -1,6 C 16,1 km/h (3 Bft)
13.01.2023 23:59 4,2 C 3,3 C 90 % 1018,9 hPa 0,0 l/m 11,3 km/h (2 Bft) S-SW 202 0 min 0,0 UV-I 0 W/m 2,7 C 0,3 C 16,1 km/h (3 Bft)
_ Min-Zeit 22:15 05:58 12:09 02:18 - 22:42 - - - - - 22:27 07:57 04:07
Minimum _ 3,7 C 2,8 C 82 % 1008,2 hPa - 8,8 km/h (2 Bft) - - - - - 2,1 C -5,6 C 12,9 km/h (3 Bft)
_ Max-Zeit 00:55 12:57 00:00 23:36 00:14 00:49 - - 12:06 12:45 13:00 01:00 02:43 19:06
Maximum _ 7,7 C 8,3 C 92 % 1018,9 hPa 0,2 l/m 37,0 km/h
S-SW (5 Bft)
- - 3 min 1,0 UV-I 382 W/m 6,5 C 4,4 C 53,1 km/h
S-SW (7 Bft)
Durchschnitt _ 5,1 C 4,3 C 88 % 1012,3 hPa #7,8 l/m 18,6 km/h (3 Bft) S-SW - #24 min. 0,6 UV-I 63 W/m 3,3 C -2,2 C 29,9 km/h (5 Bft)